[{"header": {"dx": 0.06612293990616946, "dy": 0.0552356325346848, "nx": 98, "ny": 59, "la1": 35.046912555036876, "la2": 31.78801023549047, "lo1": -121.43107172385933, "lo2": -114.95102361305473, "refTime": "2026040701", "parameterCategory": 1, "parameterNumber": 2}, "data": [8.53, 8.53, 8.53, 8.53, 8.53, 8.82, 8.22, 8.22, 8.19, 8.19, 8.44, 8.65, 9.58, 9.96, 9.6, 9.11, 9.29, 8.94, 9.39, 8.94, 8.94, 8.94, 8.49, 8.9, 8.8, 9.24, 7.35, 3.22, -1.03, -1.03, -0.96, 0.0, 0.0, 0.88, 1.7, 2.6, 3.47, 4.01, 4.29, 5.43, 6.08, 6.79, 8.0, 8.73, 9.66, 10.9, 12.51, 13.1, 12.86, 11.75, 10.55, 10.32, 10.6, 10.41, 11.05, 11.05, 11.15, 11.59, 11.59, 11.62, 11.62, 11.62, 11.62, 11.6, 11.59, 11.51, 11.51, 11.06, 11.06, 10.6, 11.05, 10.24, 9.79, 9.83, 9.83, 9.83, 10.73, 11.18, 11.18, 9.39, 8.05, 7.15, 6.26, 4.92, 4.82, 4.41, 4.47, 4.92, 5.81, 7.15, 7.52, 6.64, 6.2, 6.2, 6.26, 6.26, 6.26, 5.36, 8.24, 8.24, 8.24, 8.24, 8.53, 8.53, 8.22, 7.9, 7.59, 7.59, 7.55, 8.73, 9.2, 9.2, 10.27, 9.75, 8.6, 9.64, 9.21, 7.63, 9.11, 8.24, 8.33, 8.82, 7.63, 8.3, 7.42, 2.8, -1.03, -2.12, -1.98, -1.03, 0.0, 0.0, 1.98, 3.0, 3.97, 4.16, 4.16, 4.95, 6.01, 7.56, 8.15, 8.6, 9.9, 11.2, 12.26, 12.27, 11.26, 10.55, 10.17, 10.5, 10.6, 10.25, 10.49, 11.51, 11.51, 11.59, 11.6, 12.04, 11.62, 11.62, 11.62, 11.62, 11.18, 11.15, 11.15, 11.15, 10.7, 10.7, 11.14, 10.73, 10.28, 9.83, 9.83, 9.83, 10.73, 11.18, 11.18, 9.39, 8.05, 7.15, 6.26, 4.92, 4.82, 4.41, 4.47, 4.92, 5.81, 7.15, 7.52, 6.64, 6.2, 6.2, 6.26, 6.26, 6.26, 5.36, 8.24, 8.24, 8.24, 8.24, 7.93, 8.22, 8.22, 7.9, 7.59, 6.97, 6.95, 6.64, 8.82, 8.93, 8.8, 8.99, 9.33, 9.63, 9.04, 9.13, 7.6, 8.4, 7.6, 7.2, 6.9, 6.44, 6.11, 2.64, -1.1, -1.84, -1.96, -1.01, -1.01, 0.0, 1.1, 2.99, 3.77, 4.42, 4.26, 4.71, 5.86, 7.22, 8.53, 9.48, 10.51, 10.86, 11.28, 10.28, 9.6, 9.36, 9.55, 10.08, 10.08, 10.18, 10.32, 10.89, 11.51, 11.51, 11.96, 12.04, 11.6, 11.62, 11.62, 11.18, 11.18, 11.18, 11.18, 11.18, 10.73, 10.73, 11.18, 11.18, 10.73, 10.73, 10.28, 10.28, 10.73, 11.62, 10.73, 9.39, 8.05, 7.52, 6.61, 5.29, 4.24, 3.74, 3.74, 5.26, 6.61, 8.17, 8.6, 7.97, 6.64, 6.2, 6.2, 6.26, 6.26, 5.75, 8.24, 8.24, 8.24, 7.93, 8.22, 8.22, 8.22, 7.6, 7.3, 6.97, 6.35, 6.65, 8.35, 8.12, 8.93, 8.93, 9.38, 10.0, 9.6, 8.54, 8.63, 9.13, 8.72, 6.99, 6.32, 5.69, 4.42, 0.83, -0.95, -1.96, -1.73, -0.94, -0.94, 0.0, 1.32, 2.69, 4.0, 5.46, 5.06, 5.76, 7.24, 8.3, 8.76, 9.56, 9.62, 9.66, 9.65, 9.36, 9.24, 9.06, 9.06, 9.92, 9.92, 9.97, 10.41, 10.89, 11.06, 11.51, 11.52, 11.52, 11.6, 11.6, 11.15, 11.18, 11.18, 11.18, 11.18, 10.73, 10.73, 10.73, 11.62, 11.62, 11.14, 10.25, 10.24, 10.68, 10.66, 12.42, 11.53, 8.85, 7.54, 7.52, 6.61, 5.09, 4.57, 4.0, 3.93, 5.01, 6.9, 9.2, 9.33, 8.06, 6.45, 6.02, 6.2, 6.64, 6.64, 6.02, 8.24, 8.24, 7.93, 8.22, 8.22, 8.22, 7.9, 7.6, 7.3, 6.69, 6.35, 6.0, 7.9, 8.07, 8.47, 8.47, 8.79, 9.3, 8.94, 8.15, 7.59, 6.95, 7.51, 8.43, 6.99, 5.69, 2.54, 0.0, -1.32, -0.89, -0.84, -0.89, -0.8, 0.0, 1.26, 2.58, 2.7, 4.8, 5.2, 5.93, 6.56, 7.36, 7.9, 7.97, 8.67, 8.63, 8.95, 9.24, 9.49, 9.68, 9.68, 9.68, 9.7, 10.14, 10.14, 10.6, 11.05, 11.15, 11.59, 11.52, 11.59, 11.15, 11.15, 11.18, 11.18, 11.18, 10.73, 10.73, 10.73, 10.73, 11.18, 11.59, 10.25, 9.7, 9.68, 9.49, 10.04, 10.91, 10.84, 8.24, 7.37, 7.31, 6.36, 5.51, 4.57, 4.6, 5.01, 4.83, 6.95, 8.38, 8.8, 7.2, 6.0, 6.0, 6.36, 6.45, 6.45, 5.75, 7.93, 7.93, 7.93, 8.22, 8.22, 8.22, 7.9, 7.6, 6.98, 6.69, 6.0, 6.0, 7.13, 8.07, 8.41, 8.47, 8.35, 8.75, 8.69, 7.72, 6.2, 3.99, 3.11, 3.49, 5.63, 5.31, 1.4, 0.0, -1.4, 0.0, 0.0, 0.0, 0.0, 0.77, 0.77, 1.47, 2.35, 4.4, 5.35, 5.4, 5.35, 6.24, 6.95, 8.06, 8.43, 8.8, 9.24, 9.24, 9.49, 9.97, 10.14, 10.14, 10.14, 10.25, 10.7, 10.7, 11.14, 11.15, 11.59, 11.6, 11.15, 10.7, 10.73, 10.73, 10.73, 11.18, 10.73, 10.73, 10.73, 11.18, 10.73, 10.7, 10.25, 9.7, 8.63, 8.14, 8.48, 8.79, 8.4, 7.4, 6.57, 6.57, 6.4, 6.0, 6.13, 6.9, 6.32, 5.9, 6.44, 5.86, 5.93, 5.58, 5.58, 5.21, 6.0, 6.4, 6.0, 5.75, 7.93, 7.93, 7.93, 8.22, 8.22, 8.22, 7.6, 7.6, 6.98, 6.35, 5.72, 5.34, 7.42, 8.47, 9.82, 8.47, 8.69, 9.02, 8.07, 7.64, 8.07, 6.67, 4.18, 1.04, 1.33, 2.46, 0.0, -1.2, -1.32, -0.94, 0.0, 0.0, 0.85, 1.67, 1.52, 1.52, 2.35, 3.87, 4.05, 3.67, 3.92, 4.88, 5.21, 6.32, 7.44, 7.76, 8.3, 9.06, 9.49, 10.47, 10.47, 9.68, 10.14, 10.58, 10.6, 10.6, 11.14, 11.15, 11.15, 11.15, 10.7, 10.73, 10.73, 10.73, 10.73, 11.18, 10.73, 10.73, 11.18, 11.18, 11.15, 10.7, 10.26, 10.16, 9.26, 8.8, 7.63, 6.8, 6.44, 6.82, 6.6, 6.99, 6.99, 6.7, 7.33, 8.38, 8.73, 7.27, 5.1, 3.22, 3.72, 4.11, 4.81, 5.21, 5.58, 5.95, 5.58, 4.84, 7.93, 7.93, 7.93, 8.22, 8.22, 8.22, 7.6, 7.6, 6.98, 6.35, 5.72, 4.66, 6.86, 8.22, 9.5, 8.73, 9.34, 10.03, 8.85, 8.53, 9.42, 10.43, 10.99, 9.17, 5.9, 2.69, 0.0, -1.18, -1.25, -1.14, 0.0, 0.0, 1.28, 2.39, 2.23, 1.52, 2.31, 2.51, 2.66, 2.54, 1.49, 2.6, 4.46, 5.94, 6.71, 7.6, 7.6, 8.49, 8.9, 9.76, 8.9, 9.79, 10.25, 10.69, 10.7, 10.7, 11.14, 11.15, 11.15, 11.15, 10.73, 10.73, 10.73, 10.73, 10.73, 11.18, 11.18, 10.73, 11.18, 11.18, 11.18, 11.18, 11.18, 10.73, 9.83, 8.91, 8.36, 7.71, 6.94, 6.55, 5.77, 6.55, 6.55, 7.37, 8.18, 9.3, 8.38, 6.01, 3.76, 3.22, 2.88, 3.72, 4.11, 4.81, 5.49, 5.15, 4.81, 5.21, 7.93, 7.93, 7.93, 7.93, 8.22, 8.22, 7.61, 7.32, 6.98, 6.34, 5.69, 4.8, 6.3, 6.31, 7.36, 7.82, 8.21, 8.72, 8.37, 8.02, 8.53, 11.2, 12.1, 12.82, 11.55, 10.09, 6.64, 0.0, 0.0, 0.0, 0.0, 0.0, 1.32, 2.4, 1.55, 1.65, 1.18, 0.0, 0.0, 0.0, 6.71, 3.0, 4.22, 5.69, 6.79, 6.8, 8.3, 8.82, 8.29, 8.9, 10.28, 9.39, 10.28, 10.28, 10.73, 10.73, 11.18, 11.18, 11.15, 10.73, 10.73, 10.73, 10.73, 10.73, 10.25, 10.45, 10.89, 10.45, 10.45, 10.93, 11.51, 11.53, 11.6, 11.15, 10.73, 10.28, 9.83, 9.35, 8.33, 7.35, 5.82, 5.09, 5.09, 5.82, 6.18, 7.21, 7.68, 6.32, 4.43, 4.43, 3.91, 3.47, 4.01, 5.15, 5.49, 5.15, 5.15, 4.81, 7.93, 7.93, 7.93, 7.93, 7.93, 7.93, 7.93, 7.61, 7.32, 6.71, 6.31, 6.53, 6.96, 5.86, 6.15, 6.36, 7.1, 6.05, 5.92, 4.81, 4.81, 6.08, 8.54, 10.09, 9.42, 9.3, 8.4, 8.06, 8.05, 4.71, 0.0, 0.0, 7.6, 7.6, 5.69, 3.4, 0.0, -1.98, -0.0, 7.44, 5.31, 5.44, 6.01, 6.7, 6.99, 7.31, 7.81, 8.24, 8.73, 9.21, 9.24, 9.24, 9.8, 9.8, 10.28, 10.28, 10.73, 10.73, 10.7, 10.7, 10.25, 10.25, 10.28, 8.33, 7.81, 8.42, 9.6, 9.34, 9.6, 10.45, 10.62, 11.08, 11.15, 11.15, 11.18, 10.73, 10.73, 10.25, 9.36, 8.82, 7.28, 5.69, 4.36, 4.74, 5.84, 6.63, 6.64, 7.51, 7.6, 6.64, 6.23, 5.75, 5.59, 5.95, 6.6, 6.21, 5.46, 5.15, 7.93, 7.93, 7.93, 7.93, 7.93, 7.93, 7.93, 7.61, 7.61, 7.33, 6.96, 7.32, 8.51, 8.23, 8.58, 6.65, 6.88, 4.72, 4.54, 4.02, 4.66, 5.06, 5.79, 6.73, 7.44, 5.98, 4.74, 4.43, 4.43, 7.15, 6.71, -0.0, -0.0, -0.0, 5.6, 7.15, 7.2, 4.96, 6.01, 8.15, 8.0, 7.64, 7.37, 8.06, 7.89, 7.08, 7.54, 7.37, 7.81, 7.85, 8.44, 8.9, 8.94, 8.94, 9.35, 9.7, 10.14, 10.02, 10.02, 9.97, 9.54, 8.46, 6.7, 5.1, 5.9, 7.18, 8.03, 8.43, 9.55, 10.56, 11.14, 11.18, 11.18, 10.73, 10.73, 10.7, 10.7, 10.25, 9.7, 9.26, 8.38, 7.76, 5.69, 3.64, 4.29, 4.56, 7.81, 10.18, 10.28, 8.49, 7.15, 7.5, 7.06, 7.31, 7.12, 7.12, 6.28, 5.82, 7.93, 7.93, 7.93, 7.93, 7.93, 7.93, 7.93, 8.24, 7.95, 7.61, 7.6, 8.23, 8.59, 10.13, 10.69, 10.35, 8.21, 6.01, 5.72, 6.35, 6.97, 6.97, 6.06, 7.41, 6.4, 6.52, 5.2, 1.26, -0.0, 5.81, 4.74, 2.26, -0.0, 1.98, 4.43, 4.74, 6.08, 6.32, 6.32, 7.64, 8.34, 8.4, 8.0, 8.38, 7.6, 6.17, 6.94, 6.8, 7.06, 7.45, 7.15, 7.6, 8.0, 8.29, 8.48, 8.72, 8.95, 8.95, 8.63, 8.4, 7.37, 6.63, 3.45, 4.07, 4.6, 4.92, 5.64, 7.4, 9.4, 10.23, 10.28, 10.7, 9.72, 10.14, 9.7, 10.14, 9.54, 9.54, 9.58, 8.97, 8.63, 8.63, 6.8, 3.47, 2.32, 2.54, 7.27, 11.62, 11.18, 8.49, 6.71, 6.71, 7.08, 7.54, 7.98, 7.42, 6.98, 6.98, 7.61, 7.93, 7.93, 7.93, 7.93, 8.24, 8.24, 8.24, 7.95, 8.24, 8.24, 8.23, 8.87, 10.13, 11.92, 13.02, 12.77, 12.39, 11.83, 11.6, 12.25, 13.08, 13.27, 13.69, 12.5, 10.73, 8.48, 5.72, 2.17, -0.0, 3.79, 3.97, 3.97, 3.97, 5.06, 4.56, 4.75, 6.01, 6.01, 7.44, 7.76, 8.22, 7.95, 7.52, 6.71, 6.26, 5.58, 5.95, 6.4, 7.01, 6.26, 6.51, 6.28, 6.02, 7.37, 7.6, 7.89, 8.4, 6.79, 3.63, -0.0, 0.99, 2.47, 2.39, 2.49, 3.11, 4.6, 6.64, 8.91, 10.28, 10.23, 9.85, 9.13, 8.95, 8.95, 8.95, 8.55, 8.55, 8.25, 8.25, 8.14, 8.82, 7.2, 5.59, 1.84, 0.0, 5.0, 7.59, 8.48, 7.81, 5.81, 5.94, 7.08, 7.54, 7.1, 7.11, 7.11, 7.15, 7.61, 7.61, 7.93, 7.93, 8.24, 8.24, 8.24, 7.95, 8.24, 8.24, 8.58, 8.87, 9.5, 10.13, 11.96, 12.8, 13.39, 13.99, 13.86, 14.01, 14.42, 14.66, 14.88, 15.09, 14.74, 14.3, 13.85, 12.02, 8.03, 4.02, 4.47, 5.94, 6.79, 6.0, 5.06, 4.75, 4.75, 6.01, 7.07, 7.81, 8.6, 8.41, 8.49, 8.05, 6.71, 6.79, 2.32, 3.97, 5.95, 6.94, 7.15, 7.01, 6.71, 6.4, 3.4, 4.43, 7.63, 7.2, 3.91, -6.4, -2.83, -0.0, 2.49, 2.28, 2.44, 2.54, 3.77, 5.84, 8.48, 7.54, 9.39, 9.6, 8.6, 7.76, 7.41, 7.41, 7.06, 7.44, 7.44, 7.44, 7.44, 8.05, 6.9, 5.21, 1.84, 0.0, 0.0, 2.69, 4.46, 5.37, 6.44, 6.13, 5.75, 6.45, 6.66, 7.11, 6.71, 7.15, 7.61, 7.61, 7.93, 7.93, 8.24, 8.24, 8.24, 8.56, 8.56, 8.87, 8.58, 9.19, 9.82, 10.43, 11.36, 12.26, 13.01, 13.85, 14.39, 14.89, 14.57, 14.97, 15.21, 15.45, 15.1, 15.2, 15.2, 14.7, 12.91, 8.92, 6.26, 5.81, 8.05, 7.37, 6.8, 4.83, 6.32, 6.01, 8.05, 7.97, 8.49, 9.39, 8.49, 8.05, 7.6, 5.37, 1.49, 3.4, 5.95, 6.36, 7.15, 7.15, 6.32, 2.4, 2.26, 5.06, 7.6, 6.99, 4.74, -0.0, -0.0, -0.0, 2.83, 4.14, 4.14, 4.83, 5.69, 7.6, 7.6, 8.33, 8.05, 9.21, 8.6, 6.95, 5.76, 5.76, 5.89, 5.59, 5.69, 5.69, 5.69, 6.79, 6.08, 5.58, 7.21, 2.83, 0.0, 0.0, 1.32, 3.4, 6.32, 6.63, 5.58, 6.16, 6.88, 6.26, 6.26, 6.26, 7.61, 7.61, 7.93, 7.93, 8.24, 8.24, 8.56, 8.56, 8.56, 8.87, 8.87, 9.5, 10.12, 10.43, 11.33, 11.58, 12.45, 13.3, 14.01, 14.63, 15.07, 15.07, 15.21, 15.02, 15.15, 15.65, 15.64, 15.6, 15.15, 13.36, 10.28, 7.58, 6.67, 8.94, 7.89, 5.58, 6.01, 6.45, 8.48, 8.49, 7.54, 7.54, 8.38, 8.05, 7.45, 3.4, -0.0, 1.95, 4.22, 6.32, 7.37, 6.8, 6.08, 6.08, 6.8, 6.94, 8.05, 8.48, 9.83, 8.55, 4.4, 3.87, 5.31, 6.28, 6.4, 7.37, 6.36, 8.0, 8.0, 8.94, 7.55, 8.4, 7.81, 5.89, 4.12, 3.33, 4.11, 4.54, 5.2, 5.6, 5.6, 5.82, 5.49, 5.37, 6.79, 6.71, 1.98, 0.0, 0.0, 2.66, 4.6, 5.37, 5.95, 6.99, 6.94, 6.65, 5.81, 5.81, 7.61, 7.61, 7.93, 8.24, 8.24, 7.95, 8.56, 8.56, 8.87, 8.87, 9.19, 9.5, 9.8, 10.4, 10.99, 11.28, 11.87, 12.73, 13.36, 14.39, 14.94, 15.07, 15.25, 15.1, 15.2, 15.65, 16.09, 16.53, 16.08, 15.19, 13.41, 11.11, 7.98, 10.28, 7.6, 7.12, 6.6, 7.28, 7.45, 7.6, 7.01, 6.64, 8.05, 7.15, 7.2, 3.8, 1.67, 3.8, 6.01, 6.79, 7.28, 7.28, 7.28, 7.67, 8.48, 8.82, 9.39, 9.83, 9.63, 8.94, 7.9, 6.95, 6.98, 7.6, 7.94, 6.65, 7.6, 8.05, 8.49, 7.89, 7.44, 6.68, 4.95, 2.8, 1.98, 5.94, 6.4, 7.53, 7.63, 8.33, 8.01, 8.05, 6.94, 5.59, 4.46, 4.74, 4.11, 0.0, 1.4, 1.75, 3.32, 4.37, 6.01, 7.6, 8.06, 6.88, 6.2, 6.2, 7.61, 7.61, 7.61, 8.24, 7.95, 7.95, 8.56, 8.56, 8.87, 8.87, 9.48, 9.19, 9.8, 10.4, 10.69, 11.23, 12.16, 12.37, 13.09, 13.71, 14.65, 15.38, 15.11, 14.65, 15.2, 16.09, 16.53, 16.53, 16.08, 16.05, 15.1, 12.02, 8.47, 7.57, 7.15, 8.94, 8.05, 8.38, 7.5, 7.15, 7.15, 7.6, 7.6, 7.21, 5.69, 5.36, 4.6, 5.36, 7.15, 7.67, 7.67, 7.67, 8.0, 8.0, 8.48, 9.03, 9.03, 9.04, 8.93, 8.15, 8.37, 8.0, 8.63, 8.6, 8.41, 7.15, 7.15, 7.89, 7.28, 7.33, 7.07, 5.58, 7.89, 9.13, 9.09, 9.17, 10.2, 10.96, 10.95, 10.75, 10.45, 10.25, 8.49, 2.99, 3.6, 4.22, 1.84, 0.0, 0.0, 0.0, 1.67, 3.32, 4.6, 6.64, 7.67, 7.06, 5.94, 5.94, 7.61, 7.61, 7.61, 7.95, 7.95, 7.95, 8.56, 8.56, 8.87, 9.17, 9.48, 9.48, 10.09, 10.09, 10.09, 12.22, 11.23, 11.23, 11.34, 12.74, 14.72, 15.93, 14.53, 14.42, 13.92, 15.74, 12.51, 15.13, 15.13, 13.1, 11.4, 7.13, 6.26, 6.14, 6.36, 6.16, 6.25, 7.2, 9.13, 9.29, 7.6, 7.98, 7.94, 7.63, 6.63, 6.98, 7.33, 8.05, 8.05, 8.05, 7.67, 8.0, 8.0, 8.48, 8.0, 8.63, 8.63, 8.54, 8.37, 8.37, 8.93, 9.04, 9.03, 8.01, 8.05, 7.6, 7.55, 7.42, 8.56, 10.84, 11.62, 12.81, 14.42, 14.33, 13.92, 13.15, 12.71, 12.49, 12.04, 11.6, 9.83, 8.9, 7.81, 2.54, 1.75, 2.17, 0.0, -1.58, 0.0, 0.0, 1.49, 2.69, 5.06, 7.51, 8.67, 7.45, 6.71, 6.71, 7.61, 7.33, 7.33, 7.95, 7.95, 7.95, 8.56, 8.56, 8.87, 8.87, 9.17, 9.48, 9.77, 10.09, 10.69, 11.23, 10.65, 9.42, 9.96, 11.66, 15.35, 15.07, 14.03, 13.51, 12.89, 13.49, 12.86, 10.5, 10.71, 9.43, 6.61, 5.36, 5.36, 5.36, 5.36, 4.6, 5.31, 7.06, 8.0, 8.77, 8.94, 9.32, 9.57, 9.43, 8.0, 9.21, 8.0, 8.4, 8.91, 8.3, 8.3, 8.48, 8.48, 8.0, 7.2, 7.15, 8.37, 7.41, 8.18, 9.63, 9.03, 9.29, 8.94, 8.94, 7.6, 7.55, 7.55, 7.42, 8.9, 10.28, 12.04, 14.4, 16.76, 17.44, 16.82, 15.65, 14.28, 13.18, 11.84, 11.06, 10.16, 9.26, 6.7, 2.49, 0.0, 0.0, 0.0, -1.03, -1.18, 0.0, 1.18, 1.95, 6.32, 4.0, 4.46, 5.37, 5.36, 5.36, 7.33, 7.33, 7.33, 7.95, 7.95, 7.95, 8.56, 8.56, 8.56, 8.87, 9.17, 9.48, 9.77, 10.09, 10.69, 10.94, 10.3, 9.42, 8.85, 11.47, 13.49, 12.93, 12.09, 12.37, 12.93, 13.09, 12.11, 10.91, 9.91, 8.87, 7.15, 5.34, 4.44, 4.43, 4.47, 4.47, 4.73, 5.94, 7.21, 8.3, 9.39, 9.82, 10.14, 9.86, 8.72, 9.63, 8.6, 9.03, 8.91, 8.48, 8.38, 8.38, 8.48, 7.67, 7.33, 6.45, 7.4, 7.35, 9.32, 9.03, 8.85, 8.94, 8.49, 8.49, 7.55, 7.55, 6.98, 7.55, 8.49, 9.39, 10.6, 13.01, 15.61, 16.82, 16.54, 15.45, 12.66, 12.23, 11.26, 10.55, 10.43, 9.75, 6.8, 2.12, 0.0, 0.0, 0.0, 0.0, 0.0, 0.0, 0.0, 8.05, -2.12, -0.0, 1.1, 2.49, 2.99, 2.99, 7.33, 7.33, 7.33, 7.61, 7.95, 7.95, 8.56, 8.56, 8.56, 8.56, 9.17, 9.17, 9.77, 9.77, 10.36, 10.65, 10.3, 10.3, 11.28, 12.51, 13.01, 11.62, 9.86, 10.41, 12.16, 13.31, 13.51, 13.1, 12.4, 12.06, 11.18, 9.83, 8.49, 7.58, 7.13, 6.71, 6.26, 6.23, 6.61, 7.07, 7.58, 8.05, 8.47, 8.87, 8.21, 7.09, 9.11, 9.29, 8.94, 8.49, 8.94, 8.38, 8.3, 7.15, 6.64, 5.86, 6.18, 7.27, 8.37, 8.6, 8.05, 8.05, 8.45, 8.33, 8.33, 7.85, 6.98, 7.15, 7.37, 7.6, 8.63, 10.16, 12.7, 14.44, 10.43, 10.73, 12.16, 10.81, 10.15, 9.84, 9.92, 9.45, 6.82, 1.18, -1.18, 0.0, 0.0, 0.0, 0.0, -1.25, -8.49, -4.56, -2.16, -0.0, -0.0, 1.99, 3.49, 3.49, 7.33, 7.33, 7.33, 7.33, 7.95, 7.95, 7.95, 8.56, 8.56, 8.56, 9.13, 9.46, 9.72, 10.06, 10.65, 10.65, 10.65, 11.23, 11.87, 13.01, 13.75, 12.67, 10.91, 10.4, 11.08, 12.33, 13.02, 13.84, 13.57, 13.75, 12.92, 11.61, 10.28, 9.39, 9.39, 9.39, 8.94, 8.49, 8.03, 7.58, 7.58, 7.6, 7.6, 8.03, 7.51, 6.79, 9.32, 8.94, 8.49, 8.49, 8.94, 9.21, 7.15, 5.36, 5.36, 4.83, 5.2, 6.18, 7.56, 7.2, 7.54, 8.0, 7.71, 8.14, 7.63, 6.98, 6.71, 5.37, 4.16, 4.42, 6.44, 8.3, 12.04, 10.28, 6.23, 5.69, 7.82, 9.1, 8.66, 9.08, 9.17, 9.0, 6.73, 2.12, -1.96, -0.78, 0.0, 0.0, 0.0, -6.26, -6.08, -4.19, -2.6, -1.19, -0.0, 1.08, 3.79, 3.79, 7.61, 7.61, 7.61, 7.61, 8.24, 8.24, 8.24, 8.85, 8.85, 8.85, 8.85, 9.46, 9.46, 10.06, 10.3, 10.3, 10.65, 11.23, 12.37, 12.93, 13.23, 13.19, 13.02, 12.33, 11.92, 12.11, 12.11, 12.78, 12.98, 13.54, 13.3, 12.47, 11.57, 10.71, 10.27, 9.83, 9.83, 9.83, 9.39, 8.92, 8.47, 8.03, 7.6, 7.6, 7.13, 6.68, 8.94, 8.94, 8.49, 8.49, 8.82, 8.3, 7.15, 6.01, 5.36, 5.36, 5.03, 6.01, 6.98, 7.44, 6.51, 6.71, 6.94, 6.94, 6.45, 5.81, 3.47, 3.52, 4.12, 4.42, 6.8, 10.88, 11.96, 11.18, 8.94, 5.7, 5.69, 5.32, 6.7, 7.19, 7.67, 8.53, 7.96, 5.69, 0.0, -0.96, 0.0, -0.0, 1.52, -0.0, -4.29, -3.07, -3.49, -3.47, -2.8, -0.0, 3.79, 3.79, 7.61, 7.61, 7.61, 7.61, 7.61, 7.61, 8.24, 8.53, 8.53, 8.85, 8.85, 9.13, 9.46, 9.72, 10.06, 10.59, 10.88, 11.44, 11.8, 12.27, 12.7, 12.95, 13.19, 13.53, 13.24, 12.6, 12.3, 12.3, 12.51, 12.64, 12.75, 12.39, 11.49, 11.11, 10.67, 10.27, 10.27, 10.27, 10.27, 9.82, 9.37, 8.47, 8.49, 8.05, 7.6, 7.6, 8.03, 8.05, 8.05, 8.02, 7.4, 9.03, 7.89, 6.79, 6.01, 6.32, 6.32, 6.8, 7.81, 7.47, 8.06, 7.1, 6.71, 6.26, 5.29, 2.47, 2.35, 3.21, 4.34, 6.99, 9.33, 10.08, 13.36, 12.49, 13.32, 11.96, 8.91, 6.45, 5.31, 4.6, 5.68, 7.02, 8.53, 8.88, 8.67, 6.71, 3.79, 3.47, 4.16, 4.36, 3.76, -4.11, -3.76, -4.74, -4.11, -0.0, 5.06, 5.06, 7.61, 7.61, 7.61, 7.61, 7.61, 7.61, 7.93, 8.24, 8.53, 8.53, 8.85, 9.13, 9.46, 9.72, 10.01, 10.59, 11.16, 11.52, 11.72, 11.9, 12.54, 12.7, 12.95, 13.31, 13.53, 13.32, 13.02, 12.78, 12.51, 12.64, 12.31, 11.95, 11.49, 11.11, 10.67, 10.66, 10.67, 10.71, 10.71, 10.27, 9.82, 9.37, 8.94, 8.49, 8.49, 8.05, 8.49, 8.49, 8.49, 8.49, 8.47, 7.58, 8.41, 7.89, 8.0, 7.15, 7.6, 7.81, 7.37, 7.81, 8.06, 8.6, 7.42, 6.51, 4.11, 1.67, 2.47, 3.32, 5.37, 7.4, 8.94, 10.84, 11.33, 12.94, 13.39, 13.21, 12.79, 11.18, 7.21, 4.5, 4.71, 5.78, 7.31, 7.98, 8.01, 6.82, 4.95, 4.95, 5.37, 5.09, 4.84, -1.98, -4.11, -4.11, -4.11, -7.15, 8.05, 8.05, 7.61, 7.61, 7.61, 7.61, 7.61, 7.61, 7.93, 7.93, 8.53, 8.53, 8.85, 9.13, 9.13, 9.46, 10.01, 10.59, 11.16, 11.16, 11.35, 11.99, 12.16, 12.16, 12.95, 13.19, 12.79, 13.12, 13.32, 13.26, 13.41, 12.94, 12.64, 12.64, 11.86, 11.49, 11.04, 11.11, 10.67, 11.11, 11.11, 10.71, 10.71, 10.27, 9.82, 8.94, 8.94, 8.94, 8.94, 8.94, 8.94, 8.49, 8.49, 8.05, 6.71, 5.78, 7.52, 7.63, 8.77, 7.89, 7.5, 7.06, 8.38, 8.33, 9.32, 6.45, 3.6, 1.67, 2.57, 5.69, 6.6, 7.98, 8.94, 9.92, 10.68, 11.8, 12.07, 12.04, 12.49, 12.07, 8.8, 4.47, 0.0, 0.0, 6.26, 4.11, 2.49, 3.2, 4.22, 4.87, 5.49, 5.58, 4.93, 3.48, -4.11, -2.4, -4.11, -8.49, 8.05, 8.05, 7.32, 7.32, 7.32, 7.32, 7.32, 7.61, 7.93, 7.93, 7.93, 8.53, 8.82, 9.42, 9.42, 9.42, 10.01, 10.59, 10.59, 11.16, 11.44, 11.62, 11.62, 12.42, 12.42, 12.56, 12.79, 13.02, 13.24, 12.83, 13.02, 12.78, 12.94, 12.64, 12.18, 11.86, 11.4, 11.49, 11.05, 11.12, 11.12, 11.12, 10.67, 10.22, 9.82, 9.83, 9.83, 9.83, 10.28, 9.83, 9.39, 9.37, 8.47, 8.03, 7.13, 5.81, 4.92, 7.15, 8.05, 8.05, 7.5, 7.21, 7.6, 8.49, 8.94, 7.12, 3.45, 3.45, 5.89, 6.82, 7.98, 8.49, 9.39, 10.14, 10.89, 11.11, 11.11, 11.18, 11.18, 10.02, 6.16, 0.0, -4.98, -3.72, -2.79, -2.3, -0.0, -0.0, 1.98, 4.47, 5.24, 6.0, 5.09, 4.65, -2.6, -3.79, -5.69, -9.39, 0.0, 0.0, 7.32, 7.32, 7.32, 7.32, 7.32, 7.32, 7.6, 8.22, 8.22, 8.22, 8.82, 9.08, 9.42, 9.42, 10.01, 10.23, 10.59, 10.8, 11.07, 11.62, 11.62, 12.03, 12.42, 12.03, 12.28, 11.88, 12.11, 12.33, 12.53, 12.78, 12.51, 12.51, 12.18, 11.74, 11.71, 11.4, 11.4, 11.49, 11.49, 11.12, 11.11, 10.66, 9.77, 10.25, 9.83, 8.94, 9.83, 10.14, 9.57, 9.77, 8.87, 8.42, 7.07, 6.16, 5.24, 4.77, 7.01, 7.6, 7.5, 7.5, 7.6, 8.01, 8.05, 6.18, 3.63, 4.34, 5.49, 6.44, 7.52, 8.43, 9.16, 10.58, 11.36, 11.37, 11.6, 11.26, 10.87, 7.69, 2.32, -3.6, -4.22, -3.09, -3.64, -2.58, -1.41, -0.0, -0.0, 3.47, 6.0, 6.36, 5.51, 5.2, 5.36, -5.06, -8.49, 9.39, 0.0, 0.0, 7.32, 7.32, 7.6, 7.6, 7.6, 7.6, 7.6, 7.9, 8.22, 8.22, 8.5, 9.08, 9.42, 9.42, 10.01, 10.23, 10.59, 10.8, 11.07, 11.07, 11.62, 11.88, 11.88, 11.75, 11.75, 11.75, 11.99, 11.82, 12.11, 12.11, 12.3, 12.46, 12.04, 11.74, 11.71, 11.28, 11.4, 11.4, 11.4, 11.05, 11.04, 10.6, 10.14, 9.23, 7.97, 10.28, 11.18, 8.77, 7.26, 7.01, 7.21, 7.21, 7.26, 6.47, 5.31, 5.31, 4.9, 5.24, 7.15, 7.15, 7.15, 7.55, 7.37, 5.44, 4.94, 4.68, 4.68, 5.31, 6.79, 8.17, 8.34, 9.96, 11.49, 12.41, 12.8, 13.59, 12.79, 10.23, 4.43, -4.43, -4.38, -3.87, -4.6, -3.64, -2.58, -1.55, -0.0, 1.98, 6.0, 6.23, 6.79, 5.51, 6.45, -0.0, -8.49, 8.94, 0.0, 0.0, 7.6, 7.6, 7.6, 7.6, 7.6, 7.6, 7.6, 7.9, 7.9, 8.22, 8.5, 8.5, 9.08, 9.42, 9.66, 10.01, 10.23, 10.87, 11.07, 11.07, 11.24, 11.5, 11.5, 11.75, 11.75, 11.36, 11.6, 11.41, 11.62, 11.7, 12.3, 12.3, 12.04, 12.04, 11.71, 11.28, 11.37, 10.94, 10.94, 10.94, 11.04, 10.6, 10.14, 9.23, 8.21, 10.25, 11.36, 8.33, 6.16, 4.8, 4.77, 5.86, 5.86, 5.81, 5.08, 5.08, 5.08, 5.31, 4.8, 6.26, 6.71, 7.6, 7.37, 6.01, 6.52, 6.28, 5.72, 5.37, 7.37, 8.33, 7.76, 8.4, 9.79, 12.52, 14.73, 14.21, 13.64, 12.7, 10.95, 7.21, 4.4, -4.02, -3.51, -2.84, -1.98, -0.98, -0.0, 1.52, 5.21, 6.8, 6.58, 7.08, 6.21, 7.6, 7.6, 0.0, 0.0, 0.0, 7.6, 7.6, 7.6, 7.6, 7.6, 7.6, 7.6, 7.9, 7.9, 7.9, 8.5, 8.5, 8.82, 9.08, 9.66, 10.3, 10.51, 10.51, 10.51, 10.7, 11.34, 11.34, 11.5, 11.36, 11.36, 11.6, 11.08, 10.91, 12.15, 11.12, 11.62, 11.62, 11.81, 11.56, 11.56, 11.28, 11.28, 11.37, 11.37, 10.94, 10.94, 10.5, 10.47, 10.01, 9.43, 10.18, 10.81, 10.67, 8.92, 7.6, 7.6, 7.55, 7.1, 6.88, 6.57, 4.93, 4.65, 4.65, 4.8, 4.6, 6.71, 7.97, 7.07, 6.99, 7.81, 8.17, 7.6, 8.05, 8.05, 8.49, 7.15, 7.6, 9.39, 11.11, 14.73, 15.12, 13.72, 12.45, 12.04, 12.66, 12.05, 9.83, 7.92, 4.4, 2.84, 1.11, 0.51, 0.99, 5.21, 6.94, 7.15, 7.15, 6.26, 7.6, 8.05, 0.0, 3.2, 3.2, 7.3, 7.3, 7.3, 7.3, 7.3, 7.6, 7.6, 7.9, 7.9, 7.9, 8.5, 8.78, 8.78, 9.37, 9.94, 9.94, 10.51, 10.15, 10.51, 10.96, 10.96, 10.96, 11.22, 11.22, 11.22, 11.08, 11.08, 10.68, 10.91, 12.29, 10.62, 10.62, 10.91, 10.91, 11.08, 11.08, 11.24, 11.28, 11.28, 11.37, 10.94, 10.94, 10.47, 10.04, 10.04, 10.34, 10.81, 11.49, 11.11, 10.27, 9.37, 8.92, 8.91, 8.45, 7.37, 5.82, 5.09, 4.75, 4.41, 4.66, 5.36, 7.63, 8.3, 7.21, 7.74, 7.97, 7.6, 7.52, 8.33, 8.94, 8.24, 7.6, 9.16, 11.18, 14.73, 16.47, 13.77, 11.05, 10.62, 11.6, 12.96, 13.79, 14.15, 13.83, 8.53, 6.1, 3.39, 2.23, 5.6, 7.15, 6.71, 6.71, 6.64, 6.65, 7.52, 3.8, 2.4, 2.4, 7.3, 7.3, 7.3, 7.3, 7.3, 7.3, 7.6, 8.19, 8.19, 8.19, 8.19, 8.78, 8.78, 8.78, 9.37, 9.94, 9.94, 10.41, 10.41, 10.41, 10.96, 10.96, 11.22, 11.22, 11.22, 11.08, 11.08, 11.08, 11.08, 11.41, 10.71, 10.42, 9.92, 10.0, 10.18, 10.18, 10.66, 10.81, 11.24, 11.24, 10.81, 10.94, 10.5, 10.47, 10.47, 10.47, 10.94, 11.4, 11.04, 10.6, 10.58, 9.77, 9.32, 8.85, 7.81, 7.06, 6.07, 5.36, 4.75, 5.05, 8.05, 7.81, 7.81, 7.81, 7.06, 7.5, 7.6, 7.15, 8.05, 8.49, 7.81, 9.33, 9.74, 11.05, 14.84, 16.46, 14.75, 12.42, 11.42, 11.99, 12.89, 13.79, 14.15, 13.69, 13.25, 7.89, 5.61, 3.7, 6.14, 6.71, 6.26, 6.58, 5.51, 5.64, 6.02, 6.32, 2.4, 2.4, 7.3, 7.3, 7.59, 7.59, 7.59, 7.59, 7.86, 8.19, 8.19, 8.19, 8.19, 8.45, 8.78, 8.78, 9.02, 9.59, 9.86, 9.86, 10.41, 10.41, 10.41, 10.83, 10.83, 10.83, 11.08, 11.08, 11.08, 11.08, 11.08, 11.41, 11.12, 10.91, 10.6, 10.18, 10.18, 9.7, 10.18, 10.18, 10.77, 10.81, 10.81, 10.81, 10.47, 10.47, 10.5, 10.94, 10.94, 11.37, 10.94, 10.94, 10.47, 10.47, 10.01, 9.11, 8.6, 8.12, 6.92, 6.51, 6.0, 6.55, 5.81, 8.24, 7.81, 7.81, 7.89, 7.89, 7.5, 7.52, 7.52, 7.98, 7.54, 8.82, 10.28, 12.07, 14.22, 15.65, 15.45, 15.56, 14.64, 14.57, 14.29, 13.86, 13.41, 12.96, 12.5, 7.58, 6.68, 7.15, 7.15, 6.51, 6.36, 5.6, 5.51, 5.34, 5.59, 6.07, 3.4, 3.4, 7.59, 7.59, 7.59, 7.59, 7.59, 7.59, 7.86, 7.86, 8.19, 8.19, 8.19, 8.45, 8.45, 8.45, 8.78, 9.3, 9.86, 9.86, 9.86, 10.41, 10.68, 10.68, 10.83, 10.83, 11.08, 11.08, 11.08, 11.08, 11.31, 11.31, 11.12, 11.12, 10.91, 10.49, 10.6, 10.18, 9.7, 9.7, 10.34, 10.34, 10.34, 10.34, 10.47, 10.47, 10.5, 10.94, 11.4, 11.28, 11.24, 10.81, 10.34, 10.29, 9.86, 9.39, 8.91, 8.48, 8.0, 7.51, 7.21, 6.58, 6.21, 5.81, 8.49, 7.5, 7.97, 8.77, 7.74, 8.43, 8.05, 7.6, 8.49, 7.6, 10.2, 11.96, 13.83, 13.86, 13.84, 14.99, 16.45, 16.52, 14.75, 12.96, 12.05, 11.15, 10.7, 10.26, 9.81, 8.01, 7.21, 6.44, 6.79, 6.28, 5.59, 6.0, 5.4, 6.07, 6.0, 6.0, 7.59, 7.59, 7.59, 7.59, 7.59, 7.59, 7.59, 7.86, 7.86, 8.19, 8.19, 8.45, 8.45, 8.45, 8.73, 9.3, 9.3, 9.86, 9.86, 10.3, 10.3, 10.3, 10.68, 10.94, 10.68, 10.68, 10.68, 11.08, 10.91, 10.91, 10.91, 11.12, 11.12, 10.91, 10.91, 10.66, 10.6, 10.18, 10.34, 10.34, 9.91, 9.86, 9.57, 11.36, 10.14, 10.94, 11.28, 11.56, 11.13, 10.66, 10.18, 10.12, 9.86, 9.39, 8.96, 8.48, 8.48, 8.0, 6.94, 6.47, 6.55, 6.2, 8.49, 7.6, 7.97, 8.82, 7.97, 8.05, 8.05, 7.6, 7.15, 7.15, 9.26, 11.4, 13.76, 13.41, 12.49, 13.31, 15.55, 16.46, 14.73, 12.5, 11.15, 10.26, 9.72, 9.28, 9.11, 7.95, 7.44, 6.64, 5.86, 6.32, 5.69, 5.06, 5.95, 6.36, 7.15, 6.71, 7.59, 7.59, 7.59, 7.59, 7.59, 7.59, 7.59, 7.86, 7.86, 7.86, 8.19, 8.19, 8.45, 8.73, 8.73, 8.94, 9.3, 9.5, 9.86, 10.13, 10.3, 10.3, 10.3, 10.55, 10.55, 10.68, 10.68, 10.68, 10.91, 10.91, 10.91, 10.5, 10.71, 10.71, 10.71, 10.91, 11.08, 10.66, 10.18, 10.34, 9.86, 9.86, 8.96, 10.89, 10.13, 11.4, 11.56, 11.81, 11.39, 10.91, 10.42, 10.12, 9.7, 9.21, 8.72, 8.3, 8.48, 8.0, 7.21, 6.47, 5.94, 5.64, 8.49, 7.15, 7.6, 8.94, 8.49, 7.6, 7.6, 7.6, 7.15, 7.6, 8.94, 10.25, 14.21, 14.28, 12.52, 13.15, 14.64, 15.31, 13.69, 12.44, 11.6, 10.63, 9.74, 9.11, 8.4, 8.0, 6.64, 6.14, 5.86, 6.32, 6.98, 6.01, 5.69, 5.06, 6.79, 7.15, 7.27, 7.27, 7.27, 7.59, 7.59, 7.59, 7.59, 7.86, 7.86, 7.86, 7.86, 7.86, 8.49, 8.73, 8.73, 8.73, 8.94, 9.3, 9.5, 9.76, 10.13, 10.3, 10.3, 10.55, 10.55, 10.55, 10.68, 10.68, 10.91, 10.91, 10.4, 10.4, 10.62, 10.71, 10.71, 10.71, 10.91, 10.91, 10.66, 10.6, 10.18, 9.86, 9.21, 8.72, 11.18, 11.71, 12.3, 10.91, 10.62, 10.21, 10.0, 9.92, 9.51, 9.01, 8.72, 8.72, 8.22, 7.51, 7.01, 6.3, 5.81, 5.86, 5.75, 8.49, 8.05, 8.49, 7.6, 8.05, 7.6, 7.6, 7.6, 7.15, 8.94, 9.83, 12.44, 13.82, 13.59, 12.52, 11.84, 12.01, 12.49, 12.22, 12.33, 11.42, 10.52, 9.15, 8.4, 7.58, 6.01, 5.21, 5.21, 6.32, 7.33, 6.32, 2.69, 0.0, 5.06, 6.79, 7.27, 7.27, 7.27, 7.27, 7.59, 7.59, 7.59, 7.59, 7.86, 7.86, 7.86, 7.86, 8.15, 8.73, 8.73, 8.73, 8.73, 8.94, 9.3, 9.76, 9.76, 9.76, 9.76, 10.3, 10.55, 10.55, 10.55, 10.55, 10.55, 10.4, 10.4, 10.4, 10.4, 10.62, 10.62, 10.62, 10.62, 10.91, 10.91, 10.42, 10.6, 10.12, 9.7, 9.01, 9.71, 12.98, 11.21, 9.71, 9.01, 9.42, 9.2, 9.2, 9.42, 9.01, 8.91, 8.51, 8.22, 7.51, 7.01, 6.51, 6.23, 5.31, 8.33, 7.89, 8.05, 8.49, 8.05, 8.94, 7.6, 7.6, 7.98, 7.6, 8.82, 8.91, 9.74, 11.98, 14.14, 14.3, 9.97, 9.49, 9.86, 10.79, 11.3, 11.52, 10.6, 9.4, 8.48, 7.82, 6.32, 4.44, 4.96, 6.87, 8.0, 6.79, 2.54, 0.0, 2.54, 2.54, 6.97, 6.97, 7.27, 7.27, 7.27, 7.27, 7.59, 7.59, 7.59, 7.86, 7.86, 8.15, 8.15, 8.15, 8.73, 8.73, 8.73, 8.73, 8.94, 9.3, 9.76, 9.76, 9.76, 9.76, 10.16, 10.55, 10.55, 10.55, 10.55, 10.4, 10.4, 10.4, 10.4, 10.4, 10.62, 10.62, 10.21, 10.21, 10.21, 10.42, 10.42, 10.0, 9.92, 9.71, 10.91, 11.82, 11.39, 9.86, 8.79, 8.72, 8.91, 8.91, 8.68, 8.68, 8.28, 8.51, 8.22, 7.71, 7.51, 6.6, 6.1, 5.81, 5.86, 8.77, 8.49, 8.49, 8.49, 8.05, 7.52, 7.98, 7.98, 8.05, 8.91, 7.6, 9.2, 8.8, 11.88, 14.7, 14.51, 11.87, 9.6, 9.81, 10.04, 9.84, 9.2, 9.03, 9.2, 8.99, 8.15, 5.32, 5.7, 7.56, 7.81, 7.67, 0.0, 0.0, 0.0, 0.0, 6.97, 6.97, 6.97, 7.27, 7.27, 7.27, 7.27, 7.27, 7.59, 7.59, 7.86, 8.15, 8.15, 8.15, 8.15, 8.73, 8.73, 8.73, 8.94, 9.3, 9.58, 9.58, 9.76, 9.76, 9.76, 10.16, 10.55, 10.55, 10.16, 10.16, 10.4, 10.4, 10.4, 10.4, 10.4, 10.21, 10.21, 10.21, 10.21, 10.21, 10.21, 10.42, 10.21, 10.21, 11.12, 11.62, 11.56, 10.81, 10.34, 9.86, 9.27, 9.21, 8.51, 8.4, 8.0, 8.0, 7.48, 7.71, 7.31, 6.8, 6.51, 6.0, 5.72, 8.77, 8.49, 8.49, 8.33, 8.33, 7.31, 7.74, 7.98, 8.43, 8.37, 8.6, 8.82, 8.82, 10.08, 13.82, 16.09, 16.99, 17.43, 17.36, 16.71, 14.66, 12.18, 10.4, 9.77, 8.58, 7.59, 7.15, 7.44, 8.93, 9.3, 4.2, 0.0, 0.0, 0.0, 0.0, 6.97, 6.97, 6.97, 6.97, 7.27, 7.27, 7.27, 7.27, 7.27, 7.27, 7.88, 8.15, 8.15, 8.15, 8.15, 8.38, 8.73, 8.73, 8.73, 8.94, 8.94, 9.21, 9.58, 9.76, 9.76, 9.76, 10.16, 10.16, 10.16, 10.16, 10.16, 10.4, 10.4, 10.4, 10.0, 10.0, 10.11, 10.21, 10.21, 10.21, 10.21, 10.21, 10.21, 10.62, 10.71, 11.12, 11.39, 11.56, 11.13, 11.08, 10.6, 9.7, 9.21, 8.72, 8.0, 7.48, 7.48, 7.08, 7.31, 6.8, 6.6, 6.51, 6.0, 6.13, 8.82, 8.49, 8.77, 7.74, 7.81, 7.74, 8.94, 7.97, 8.37, 8.99, 9.2, 9.66, 10.58, 11.62, 14.3, 15.97, 17.78, 18.87, 19.2, 17.31, 14.75, 12.04, 11.02, 10.6, 9.3, 7.9, 8.22, 9.08, 9.3, 4.4, 0.0, 0.0, 0.0, 0.0, 6.97, 6.97, 6.97, 6.97, 6.97, 7.27, 7.27, 7.27, 7.27, 7.27, 7.55, 7.88, 8.15, 8.15, 8.15, 8.15, 8.73, 8.73, 8.73, 8.73, 8.94, 8.94, 9.21, 9.58, 9.76, 9.76, 9.76, 10.02, 10.02, 10.02, 10.02, 10.16, 10.4, 10.4, 10.0, 9.88, 9.88, 9.88, 10.11, 10.11, 10.21, 10.21, 10.21, 10.62, 10.71, 10.71, 11.12, 11.33, 11.39, 11.33, 10.91, 10.66, 10.18, 9.7, 9.21, 8.0, 7.48, 7.08, 7.2, 6.8, 6.4, 6.51, 6.4, 6.13, 6.55, 8.94, 8.94, 8.05, 8.05, 8.05, 8.41, 8.24, 8.67, 8.91, 9.42, 10.08, 10.69, 11.62, 12.52, 12.74, 15.36, 18.24, 19.08, 18.0, 16.37, 14.29, 12.96, 12.07, 11.57, 10.38, 7.9, 8.59, 8.59, 5.52, 0.0, -1.62, -1.62, -1.62, 6.97, 6.97, 6.97, 6.97, 6.97, 6.97, 7.27, 7.27, 7.55, 7.55, 7.55, 7.55, 8.15, 8.15, 8.15, 8.15, 8.15, 8.73, 8.73, 8.73, 8.73, 8.73, 9.21, 9.21, 9.58, 9.76, 9.76, 10.02, 10.02, 10.02, 10.02, 10.02, 10.02, 10.4, 9.88, 9.88, 9.88, 9.88, 9.88, 9.88, 9.88, 10.0, 10.4, 10.4, 10.4, 10.71, 11.12, 11.12, 11.12, 11.12, 10.91, 10.91, 10.49, 10.42, 9.21, 8.72, 8.22, 7.71, 7.31, 6.8, 6.8, 6.51, 6.0, 6.13, 5.86, 8.77, 8.94, 8.94, 8.82, 7.98, 8.24, 8.24, 8.67, 9.16, 9.77, 10.23, 10.69, 11.59, 11.62, 11.51, 12.53, 16.37, 19.08, 18.31, 17.15, 14.69, 13.41, 12.96, 12.07, 9.33, 7.56, 7.27, 6.87, 4.8, 0.0, -1.69, -1.69, -1.69, 6.97, 6.97, 6.67, 6.67, 6.67, 6.67, 6.97, 7.55, 7.55, 7.55, 7.55, 7.55, 7.55, 8.15, 8.15, 8.15, 8.15, 8.15, 8.73, 8.73, 8.73, 8.73, 8.73, 9.21, 9.21, 9.58, 9.76, 9.76, 10.02, 10.02, 9.63, 10.02, 10.02, 10.02, 9.63, 9.88, 9.88, 9.88, 9.88, 9.88, 9.88, 10.0, 10.4, 10.4, 10.4, 10.4, 10.91, 11.12, 11.12, 11.12, 10.71, 10.71, 10.62, 10.42, 9.92, 9.01, 8.72, 8.22, 7.81, 7.31, 7.01, 6.51, 6.4, 6.13, 5.44, 8.33, 8.33, 8.82, 8.94, 8.49, 8.94, 8.87, 9.33, 9.77, 9.79, 10.23, 10.24, 10.73, 11.14, 11.05, 11.51, 14.06, 17.06, 17.62, 17.0, 15.05, 12.96, 12.05, 11.99, 10.05, 8.99, 6.64, 6.01, 4.2, 0.0, 0.0, 0.0, 0.0, 6.67, 6.67, 6.67, 6.67, 6.67, 6.67, 6.95, 6.95, 7.55, 7.55, 7.55, 7.55, 7.55, 7.88, 8.15, 8.15, 8.15, 8.15, 8.15, 8.38, 8.38, 8.38, 8.73, 8.73, 9.21, 9.21, 9.21, 9.76, 9.76, 9.63, 9.63, 9.63, 10.02, 10.02, 9.63, 9.63, 9.63, 9.63, 9.88, 9.88, 9.88, 9.88, 10.27, 10.4, 10.4, 10.4, 10.8, 10.91, 10.91, 10.91, 10.71, 10.62, 10.62, 10.21, 9.71, 9.42, 9.01, 8.51, 8.3, 7.81, 7.51, 7.01, 6.51, 6.0, 5.6, 7.31, 7.97, 8.49, 8.49, 8.94, 9.39, 9.79, 9.77, 10.22, 10.22, 10.23, 10.28, 9.83, 10.24, 10.69, 11.14, 11.59, 13.18, 15.71, 15.81, 14.69, 10.63, 9.89, 10.37, 10.8, 8.67, 7.47, 5.46, 3.52, 1.26, 0.0, 0.0, 0.0, 6.35, 6.35, 6.35, 6.67, 6.67, 6.67, 6.95, 6.95, 6.95, 7.55, 7.55, 7.55, 7.55, 7.55, 8.15, 8.15, 8.15, 8.15, 8.15, 8.15, 8.15, 8.38, 8.38, 8.73, 9.01, 9.21, 9.21, 9.21, 9.21, 9.21, 9.63, 9.63, 9.63, 9.63, 9.63, 9.63, 9.63, 9.63, 9.63, 9.63, 9.63, 9.63, 10.02, 9.63, 10.02, 10.16, 10.16, 10.55, 10.91, 10.91, 10.8, 10.4, 10.4, 10.11, 9.71, 9.2, 9.2, 8.91, 8.51, 8.22, 7.81, 7.51, 7.01, 6.4, 5.86, 7.4, 7.31, 7.97, 8.49, 8.49, 9.33, 9.77, 9.75, 10.04, 10.22, 9.77, 9.83, 9.83, 9.83, 10.28, 10.73, 11.18, 11.59, 12.42, 15.18, 12.5, 10.18, 8.91, 8.8, 9.34, 9.34, 7.41, 5.36, 3.14, 2.46, 0.0, 0.0, 0.0, 6.35, 6.35, 6.35, 6.67, 6.67, 6.67, 6.95, 6.95, 6.95, 7.27, 7.55, 7.55, 7.55, 7.55, 7.55, 8.15, 8.15, 8.15, 8.15, 8.15, 8.15, 8.15, 8.38, 8.38, 8.38, 9.01, 9.21, 9.21, 9.21, 9.21, 9.21, 9.21, 9.63, 9.63, 9.63, 9.63, 9.63, 9.63, 9.63, 9.63, 9.63, 10.02, 10.02, 9.63, 9.63, 10.02, 10.16, 10.16, 10.16, 10.16, 10.4, 10.4, 10.4, 9.88, 9.48, 9.6, 9.2, 8.68, 8.51, 8.0, 8.22, 7.71, 6.8, 6.92, 6.0, 5.2, 7.4, 7.31, 7.74, 7.97, 8.41, 9.32, 9.21, 8.72, 9.75, 9.6, 9.33, 9.39, 9.83, 10.28, 10.73, 10.73, 11.62, 12.52, 14.74, 13.34, 10.96, 8.91, 8.05, 7.92, 8.88, 7.33, 5.63, 3.14, 2.17, 1.11, 1.11, 1.11, 6.35, 6.35, 6.35, 6.35, 6.67, 6.67, 6.67, 6.95, 6.95, 6.95, 7.55, 7.55, 7.55, 7.55, 7.55, 7.55, 7.81, 7.81, 8.15, 8.15, 8.15, 8.15, 8.15, 8.38, 8.38, 8.65, 9.01, 9.21, 9.21, 9.21, 9.21, 9.21, 9.21, 9.38, 9.63, 9.63, 9.63, 9.63, 9.63, 9.63, 9.63, 9.63, 9.63, 9.63, 9.63, 10.02, 10.02, 10.16, 10.16, 10.16, 10.16, 10.16, 10.4, 9.88, 9.48, 9.35, 8.96, 8.68, 8.28, 8.4, 8.0, 7.71, 7.31, 6.8, 6.4, 5.05, 7.37, 7.4, 7.4, 7.97, 8.41, 8.6, 9.11, 7.76, 8.72, 8.8, 8.91, 9.16, 9.79, 9.79, 10.24, 10.73, 11.18, 16.07, 14.69, 13.79, 12.33, 9.83, 7.67, 7.32, 7.92, 7.92, 6.64, 5.46, 3.7, 2.28, 2.28, 2.28, 6.35, 6.35, 6.35, 6.35, 6.35, 6.67, 6.67, 6.95, 6.95, 6.95, 6.95, 7.55, 7.55, 7.55, 7.55, 7.55, 7.55, 7.55, 7.81, 7.81, 7.81, 8.15, 8.15, 8.15, 8.38, 8.38, 8.65, 9.01, 9.21, 9.21, 9.21, 9.21, 9.21, 9.21, 9.21, 9.21, 9.48, 9.48, 9.48, 9.48, 9.63, 9.63, 9.63, 9.63, 9.63, 9.63, 10.02, 10.02, 10.02, 10.02, 9.63, 10.02, 9.88, 9.88, 9.48, 8.96, 8.82, 8.43, 8.15, 7.76, 8.0, 7.48, 7.31, 7.2, 6.13, 5.31, 5.05, 5.34, 8.17, 8.41, 8.67, 9.11, 9.32, 8.94, 8.41, 7.28, 8.4, 9.33, 9.33, 10.08, 10.08, 10.68, 14.75, 15.65, 14.29, 13.79, 12.66, 10.6, 8.4, 7.67, 7.69, 7.32, 7.44, 7.13, 6.01, 4.44, 4.44, 4.44, 6.35, 6.35, 6.35, 6.35, 6.35, 6.67, 6.67, 6.95, 6.95, 6.95, 6.95, 6.95, 7.23, 7.55, 7.55, 7.55, 7.55, 7.55, 7.55, 7.81, 7.81, 7.81, 8.15, 8.15, 8.15, 8.38, 8.38, 8.73, 9.01, 9.21, 9.21, 9.21, 9.21, 9.21, 9.21, 9.21, 9.21, 9.48, 9.48, 9.48, 9.48, 9.48, 9.48, 9.48, 9.48, 9.63, 9.63, 9.63, 9.63, 9.63, 9.63, 9.63, 9.88, 9.88, 9.35, 8.96, 8.82, 8.43, 8.15, 7.76, 7.61, 7.48, 7.48, 6.95, 6.67, 5.95, 5.09, 5.05, 7.81, 8.67, 9.11, 9.32, 9.83, 9.83, 9.76, 9.32, 8.67, 8.79, 9.75, 9.85, 9.75, 10.52, 14.26, 17.43, 13.39, 12.86, 11.18, 10.01, 8.8, 8.24, 8.05, 7.67, 7.82, 7.82, 7.58, 6.87, 6.87, 6.87, 6.35, 6.35, 6.35, 6.35, 6.35, 6.35, 6.67, 6.67, 6.95, 6.95, 6.95, 6.95, 6.95, 7.23, 7.55, 7.55, 7.55, 7.55, 7.55, 7.55, 7.81, 7.81, 8.15, 8.15, 8.15, 8.15, 8.38, 8.38, 8.73, 9.01, 9.21, 9.21, 9.21, 9.21, 9.21, 9.21, 9.21, 9.48, 9.48, 9.48, 9.48, 9.48, 9.48, 9.48, 9.48, 9.48, 9.48, 9.63, 9.63, 9.63, 9.63, 9.48, 9.48, 9.35, 9.35, 8.96, 8.82, 8.43, 8.27, 8.15, 7.61, 7.61, 7.48, 7.34, 6.79, 6.52, 5.36, 4.73, 5.31, 8.37, 9.11, 9.32, 9.83, 9.83, 9.77, 9.77, 9.83, 9.33, 9.6, 9.75, 9.75, 10.28, 11.64, 17.26, 13.29, 11.36, 9.6, 8.8, 8.3, 8.3, 8.05, 7.67, 7.67, 7.82, 7.58, 7.96, 7.96, 7.96, 6.35, 6.35, 6.35, 6.35, 6.35, 6.35, 6.35, 6.67, 6.95, 6.95, 6.95, 6.95, 6.95, 6.95, 7.23, 7.55, 7.55, 7.55, 7.55, 7.55, 7.55, 7.81, 8.15, 8.15, 8.15, 8.15, 8.15, 8.38, 8.38, 8.73, 8.73, 9.01, 9.21, 9.21, 9.21, 9.21, 9.21, 9.1, 9.1, 9.1, 9.1, 9.1, 9.1, 9.1, 9.1, 9.1, 9.1, 9.1, 9.63, 9.63, 9.1, 9.35, 9.35, 9.35, 8.96, 8.96, 8.82, 8.43, 8.27, 7.9, 8.0, 7.61, 7.44, 7.34, 7.34, 6.79, 5.95, 5.36, 5.09, 7.76, 8.79, 8.79, 9.11, 9.39, 9.39, 9.83, 9.76, 9.32, 9.6, 9.75, 9.75, 10.18, 10.35, 14.81, 17.1, 11.18, 8.8, 7.68, 7.35, 7.35, 7.69, 7.32, 7.32, 7.07, 7.58, 7.58, 7.58, 7.58, 6.0, 6.0, 6.35, 6.35, 6.35, 6.35, 6.35, 6.35, 6.67, 6.95, 6.95, 6.95, 6.95, 6.95, 6.95, 7.55, 7.55, 7.55, 7.55, 7.55, 7.55, 7.55, 8.15, 8.15, 8.15, 8.15, 8.15, 8.15, 8.38, 8.38, 8.73, 8.73, 9.01, 9.21, 9.21, 9.21, 8.84, 9.1, 9.1, 9.1, 9.1, 9.1, 9.1, 9.1, 9.1, 9.1, 9.1, 9.1, 9.35, 9.35, 9.35, 9.35, 9.35, 8.96, 8.96, 8.82, 8.82, 8.27, 8.27, 7.72, 7.72, 7.61, 7.44, 7.44, 7.07, 6.79, 6.59, 5.38, 5.38, 7.13, 7.64, 8.15, 8.22, 8.6, 8.85, 9.29, 9.32, 9.11, 8.79, 9.21, 9.75, 10.28, 10.35, 12.39, 17.71, 13.39, 9.49, 7.06, 5.76, 5.76, 5.94, 6.68, 6.98, 6.39, 6.79, 6.79, 6.79, 6.79, 6.0, 6.0, 6.0, 6.0, 6.35, 6.35, 6.35, 6.35, 6.35, 6.67, 6.67, 6.95, 6.95, 6.95, 6.95, 7.27, 7.55, 7.55, 7.55, 7.55, 7.55, 7.55, 7.88, 8.15, 8.15, 8.15, 8.15, 8.15, 8.15, 8.38, 8.38, 8.38, 8.65, 8.65, 8.65, 8.65, 8.65, 8.93, 8.93, 8.93, 8.93, 8.93, 8.93, 8.93, 8.55, 8.96, 8.96, 9.35, 9.35, 9.35, 9.35, 9.35, 8.96, 8.96, 8.96, 8.82, 8.43, 8.27, 8.27, 8.09, 7.72, 7.72, 7.44, 7.44, 7.07, 6.87, 6.28, 6.01, 5.69, 6.01, 6.59, 8.8, 8.22, 8.6, 8.85, 9.32, 9.39, 9.39, 9.32, 9.54, 10.04, 10.28, 10.35, 11.96, 17.28, 17.41, 11.66, 8.4, 7.06, 5.89, 5.21, 5.94, 6.32, 6.39, 5.69, 6.01, 6.01, 6.01, 5.72, 5.72, 6.0, 6.0, 6.0, 6.35, 6.35, 6.35, 6.35, 6.35, 6.67, 6.67, 6.67, 6.67, 6.95, 7.27, 7.27, 7.55, 7.55, 7.55, 7.55, 7.55, 7.55, 7.88, 8.15, 8.15, 8.15, 8.15, 8.15, 8.15, 8.15, 8.38, 8.65, 8.65, 8.65, 8.65, 8.65, 8.93, 8.93, 8.55, 8.55, 8.55, 8.55, 8.55, 8.82, 8.82, 8.82, 8.96, 8.96, 8.96, 9.35, 8.96, 8.96, 8.96, 8.96, 8.82, 8.43, 8.27, 8.27, 8.09, 7.72, 7.72, 7.51, 7.44, 7.44, 6.87, 6.63, 6.28, 6.01, 6.01, 6.63, 8.34, 8.37, 9.7, 8.49, 8.94, 9.39, 9.39, 9.39, 9.33, 10.04, 10.28, 10.35, 11.54, 16.66, 18.93, 14.06, 11.36, 9.4, 7.73, 7.07, 6.01, 5.94, 5.94, 6.24, 6.18, 6.18, 6.18, 5.46, 5.46, 5.46, 5.72, 6.0, 6.0, 6.35, 6.35, 6.35, 6.35, 6.35, 6.67, 6.67, 6.67, 6.67, 6.67, 7.27, 7.55, 7.55, 7.55, 7.55, 7.55, 7.55, 7.55, 7.88, 8.15, 8.15, 8.15, 8.15, 8.15, 8.15, 8.15, 8.38, 8.65, 8.65, 8.65, 8.65, 8.65, 8.55, 8.55, 8.55, 8.55, 8.55, 8.82, 8.82, 8.82, 8.82, 8.82, 8.96, 8.96, 8.96, 8.96, 8.96, 8.96, 8.82, 8.43, 8.43, 8.27, 8.27, 8.09, 8.09, 7.72, 7.51, 7.15, 7.44, 6.87, 6.63, 6.63, 6.01, 6.01, 6.01, 6.59, 6.8, 9.7, 8.49, 8.94, 8.94, 8.94, 8.94, 9.32, 9.11, 9.85, 10.28, 10.6, 14.25, 18.05, 17.31, 12.86, 10.93, 10.02, 9.54, 9.55, 7.76, 6.31, 6.31, 5.9, 5.9, 5.9, 5.46, 5.46, 5.46, 5.72, 6.0, 6.0, 6.35, 6.35, 6.35, 6.35, 6.35, 6.67, 6.67, 6.67, 6.67, 6.67, 7.27, 7.55, 7.55, 7.55, 7.55, 7.55, 7.55, 7.55, 7.88, 8.15, 8.15, 8.15, 8.15, 8.15, 8.15, 8.15, 8.38, 8.65, 8.65, 8.65, 8.65, 8.65, 8.55, 8.55, 8.55, 8.55, 8.55, 8.82, 8.82, 8.82, 8.82, 8.82, 8.96, 8.96, 8.96, 8.96, 8.96, 8.96, 8.82, 8.43, 8.43, 8.27, 8.27, 8.09, 8.09, 7.72, 7.51, 7.15, 7.44, 6.87, 6.63, 6.63, 6.01, 6.01, 6.01, 6.59, 6.8, 9.7, 8.49, 8.94, 8.94, 8.94, 8.94, 9.32, 9.11, 9.33, 10.28, 10.6, 12.04, 15.38, 17.31, 15.53, 12.41, 11.51, 11.06, 11.05, 10.38, 7.59, 5.69, 5.45, 5.45, 5.45]}, {"header": {"dx": 0.06612293990616946, "dy": 0.0552356325346848, "nx": 98, "ny": 59, "la1": 35.046912555036876, "la2": 31.78801023549047, "lo1": -121.43107172385933, "lo2": -114.95102361305473, "refTime": "2026040701", "parameterCategory": 1, "parameterNumber": 3}, "data": [-8.53, -8.53, -8.53, -8.53, -8.53, -8.24, -8.22, -8.22, -7.6, -7.6, -6.63, -5.56, -5.75, -3.98, -2.13, -2.28, -1.33, 0.0, 0.0, 0.0, 0.0, 0.0, 0.0, -0.89, -1.6, -1.68, -3.27, -5.37, -6.17, -6.17, -5.73, -5.81, -5.36, -5.29, -5.09, -5.2, -5.21, -4.81, -5.15, -4.65, -4.56, -5.1, -5.72, -6.24, -7.24, -7.01, -7.82, -7.71, -7.23, -5.48, -4.87, -4.3, -3.53, -2.6, -1.7, -1.7, -0.8, -0.83, -0.83, 0.0, 0.0, 0.0, 0.0, 0.77, 0.83, 1.64, 1.64, 1.58, 1.58, 1.63, 1.7, 0.93, 0.98, 0.0, 0.0, 0.0, 0.0, 0.0, 0.0, 0.0, 0.0, 0.0, 0.0, 0.0, -0.96, -0.73, 0.0, 0.0, 0.0, 0.0, -1.07, -0.95, -0.89, -0.89, 0.0, 0.0, 0.0, 0.0, -8.82, -8.82, -8.82, -8.82, -8.53, -8.53, -8.22, -7.9, -7.59, -7.59, -6.97, -6.98, -5.52, -4.6, -4.4, -3.25, -2.46, -1.93, -1.84, -2.54, -2.28, -2.06, -1.67, -1.47, -2.54, -3.32, -4.12, -5.6, -6.17, -6.36, -5.94, -6.17, -6.26, -6.26, -5.94, -6.0, -5.95, -5.82, -5.82, -5.77, -6.01, -6.3, -6.98, -7.82, -8.37, -9.6, -8.99, -8.18, -6.43, -4.87, -4.62, -3.82, -3.53, -3.16, -2.25, -1.64, -1.64, -0.83, -0.77, -0.8, 0.0, 0.0, 0.0, 0.0, 0.0, 0.8, 0.8, 0.8, 0.76, 0.82, 0.86, 0.0, 0.0, 0.0, 0.0, 0.0, 0.0, 0.0, 0.0, 0.0, 0.0, 0.0, 0.0, 0.0, -0.96, -0.73, 0.0, 0.0, 0.0, 0.0, -1.07, -0.95, -0.89, -0.89, 0.0, 0.0, 0.0, 0.0, -8.82, -8.82, -8.82, -8.82, -8.5, -8.22, -8.22, -7.9, -7.59, -7.55, -6.95, -6.64, -6.86, -5.95, -4.4, -3.99, -3.11, -3.61, -3.87, -3.65, -3.8, -4.2, -3.8, -3.6, -4.14, -4.03, -5.24, -6.16, -6.61, -6.45, -6.88, -7.08, -7.08, -7.6, -6.61, -7.47, -6.6, -6.18, -6.82, -7.07, -7.33, -7.94, -8.53, -9.48, -9.7, -9.31, -8.05, -6.33, -4.8, -4.25, -3.82, -3.67, -3.67, -3.39, -2.95, -2.51, -1.64, -1.64, -1.6, -0.8, -0.77, 0.0, 0.0, 0.0, 0.0, 0.0, 0.0, 0.0, 0.0, 0.0, 0.0, 0.0, 0.0, 0.0, 0.0, 0.0, 0.0, 0.0, 0.0, 0.0, 0.0, -1.07, -1.1, -0.88, -1.41, -1.49, -1.49, -1.05, -1.1, -2.33, -2.46, -1.14, -0.95, -0.89, -0.89, 0.0, 0.0, -0.82, -8.82, -8.82, -8.82, -8.5, -8.22, -8.22, -8.22, -8.19, -7.86, -7.55, -7.51, -7.25, -7.42, -6.31, -5.95, -5.95, -5.21, -5.0, -4.8, -4.88, -3.7, -3.65, -3.49, -3.99, -4.22, -5.69, -6.18, -6.65, -6.64, -6.88, -6.94, -7.54, -7.54, -8.05, -7.94, -8.06, -8.0, -8.18, -8.43, -9.05, -9.66, -9.96, -9.56, -8.76, -8.01, -7.24, -5.63, -4.25, -3.36, -2.47, -2.47, -2.71, -2.71, -2.49, -2.6, -2.51, -1.58, -1.64, -1.54, -1.54, -0.77, -0.77, -0.8, 0.0, 0.0, 0.0, 0.0, 0.0, 0.0, 0.0, 0.0, 0.0, -0.93, -0.85, -0.93, -1.07, -1.18, -1.55, -1.44, -1.26, -0.94, -1.07, -1.1, -1.7, -1.83, -2.0, -2.95, -3.76, -4.14, -4.6, -3.11, -2.69, -1.84, -1.72, -0.89, -0.95, -0.95, -1.72, -8.82, -8.82, -8.5, -8.22, -8.22, -8.22, -7.9, -8.19, -7.86, -7.81, -7.51, -7.8, -7.9, -7.06, -6.59, -6.59, -6.15, -6.2, -6.71, -6.98, -7.59, -6.95, -5.63, -5.06, -3.99, -5.69, -7.63, -8.05, -7.94, -7.1, -7.55, -8.0, -8.01, -8.05, -8.85, -9.03, -9.46, -9.6, -10.4, -11.02, -10.66, -9.0, -7.9, -7.18, -5.52, -4.71, -4.07, -3.36, -2.59, -1.76, -1.76, -1.76, -1.62, -1.69, -1.69, -1.63, -1.7, -0.8, -0.83, -1.54, -0.83, -0.8, -0.8, 0.0, 0.0, 0.0, 0.0, 0.0, 0.0, 0.0, 0.0, -0.89, -0.79, -1.62, -1.76, -2.59, -2.23, -2.42, -2.71, -2.06, -1.84, -2.09, -2.12, -1.84, -1.83, -2.76, -3.76, -6.44, -6.95, -6.7, -4.4, -3.6, -3.0, -3.0, -2.12, -1.84, -1.84, -2.47, -8.5, -8.5, -8.5, -8.22, -8.22, -8.22, -7.9, -8.19, -8.15, -7.81, -7.8, -7.8, -8.02, -7.06, -7.36, -6.59, -7.42, -7.65, -7.72, -8.69, -9.3, -8.99, -9.33, -8.72, -7.51, -6.63, -8.38, -8.49, -8.38, -8.49, -8.05, -8.05, -8.05, -8.46, -8.46, -8.82, -8.63, -8.8, -9.81, -10.8, -9.81, -8.73, -6.95, -5.64, -5.06, -4.4, -3.36, -3.36, -2.59, -2.49, -1.69, -1.69, -1.69, -0.85, -0.82, -0.82, -0.86, -0.8, -0.83, -0.77, -0.8, -0.76, 0.0, 0.0, 0.0, 0.0, 0.0, 0.0, 0.0, 0.0, 0.0, -0.82, -0.79, -1.62, -2.35, -2.44, -2.83, -3.3, -4.2, -3.17, -2.82, -2.82, -3.2, -3.0, -3.68, -4.14, -6.32, -7.87, -8.58, -7.33, -4.75, -3.72, -3.72, -3.47, -3.0, -3.2, -3.0, -2.47, -8.5, -8.5, -8.5, -8.22, -8.22, -8.22, -8.19, -8.19, -8.15, -8.08, -8.0, -7.72, -8.35, -6.59, -7.02, -6.59, -7.72, -8.02, -8.97, -9.34, -8.97, -9.52, -9.4, -9.33, -9.29, -8.6, -8.49, -8.41, -7.94, -7.54, -8.94, -8.05, -8.45, -8.33, -8.36, -8.36, -8.63, -9.04, -9.45, -10.08, -10.46, -8.54, -7.81, -6.32, -4.96, -3.45, -3.32, -2.47, -2.59, -2.33, -2.33, -1.76, -1.69, -1.76, -1.63, -1.63, -0.86, -0.8, -0.8, -0.8, -0.76, 0.0, 0.0, 0.0, 0.0, 0.0, 0.0, 0.0, 0.0, 0.0, -0.8, -0.76, -0.73, -1.56, -1.54, -1.6, -2.54, -3.4, -4.03, -4.26, -3.77, -3.99, -3.99, -4.46, -5.86, -6.7, -6.98, -7.27, -6.79, -5.37, -4.46, -4.11, -4.01, -3.47, -3.72, -3.97, -3.72, -3.22, -8.5, -8.5, -8.5, -8.22, -8.22, -8.22, -8.19, -8.19, -8.15, -8.08, -8.0, -8.15, -8.82, -8.22, -8.15, -6.98, -7.64, -8.21, -8.85, -8.53, -7.54, -6.08, -5.99, -7.14, -7.87, -8.06, -6.71, -7.06, -7.5, -7.97, -8.94, -9.83, -10.2, -9.54, -8.19, -8.36, -7.71, -6.7, -6.64, -7.63, -7.45, -5.2, -2.98, -1.98, 0.0, 0.0, 0.0, 0.0, -0.89, -1.22, -0.89, -0.89, -0.85, -0.89, -0.82, -0.82, -0.86, -0.8, -0.8, -0.8, 0.0, 0.0, 0.0, 0.0, 0.0, 0.0, 0.0, 0.0, 0.0, 0.0, 0.0, 0.0, 0.0, 0.0, 0.0, -0.69, -1.52, -2.31, -3.09, -4.68, -4.95, -4.68, -4.68, -4.21, -5.46, -6.2, -6.7, -6.01, -5.01, -5.37, -5.05, -4.46, -4.11, -4.01, -4.58, -4.29, -4.01, -3.47, -8.5, -8.5, -8.5, -8.5, -8.22, -8.22, -8.78, -8.45, -8.73, -8.65, -9.1, -9.6, -11.33, -10.81, -10.12, -9.77, -10.03, -9.59, -9.3, -9.02, -8.53, -5.6, -4.65, -3.94, -4.81, -5.77, -6.64, -8.94, -8.49, -7.6, -8.05, -8.05, -7.94, -7.21, -6.98, -7.42, -7.06, -7.6, -6.26, -5.81, 0.0, 6.0, 6.32, 5.69, 5.1, 3.4, 3.32, 1.47, 1.84, 0.89, 0.0, 0.0, 0.0, 0.0, 0.0, 0.0, 0.0, 0.0, -0.8, 0.0, 0.0, 0.0, 0.0, 0.0, 0.79, 2.41, 2.51, 2.41, 2.41, 2.34, 1.64, 1.44, 0.77, 0.7, 0.0, 0.0, 0.0, -0.85, -1.67, -3.27, -4.16, -4.36, -4.36, -4.16, -5.15, -6.01, -6.14, -6.32, -4.43, -4.43, -4.89, -5.21, -4.81, -4.29, -4.58, -4.29, -4.29, -4.01, -8.5, -8.5, -8.5, -8.5, -8.5, -8.5, -8.5, -8.78, -8.45, -8.94, -9.76, -10.68, -9.86, -10.55, -11.41, -11.81, -12.42, -12.96, -13.02, -12.04, -12.04, -10.94, -9.76, -8.83, -8.24, -6.97, -4.2, 2.69, 0.0, -7.07, -5.81, -6.26, 0.0, 0.0, -5.69, -6.8, -6.71, 5.94, 8.05, 4.96, 6.63, 6.52, 6.01, 4.46, 2.99, 2.09, 1.95, 2.06, 1.94, 1.84, 1.68, 1.68, 0.82, 0.82, 0.0, 0.0, 0.0, 0.0, -0.76, -0.82, -0.79, -0.79, 0.0, 1.67, 5.21, 5.9, 4.8, 4.31, 3.69, 2.41, 1.52, 1.48, 0.7, 0.7, 0.0, 0.0, 0.0, -0.79, -0.72, -1.47, -2.18, -3.55, -5.09, -4.74, -4.87, -5.31, -6.64, -5.63, -3.8, -2.66, -2.49, -3.45, -4.47, -3.97, -3.77, -3.55, -3.9, -4.29, -8.5, -8.5, -8.5, -8.5, -8.5, -8.5, -8.5, -8.78, -8.78, -9.02, -9.86, -10.7, -10.94, -10.59, -11.44, -11.64, -12.03, -10.62, -10.21, -10.91, -13.99, -14.33, -14.05, -12.62, -11.69, -8.37, -4.74, 4.43, 4.43, 0.0, 0.0, 6.71, 6.71, 6.26, 2.8, 0.0, 3.6, 7.44, 6.01, 4.66, 5.72, 5.46, 4.21, 2.69, 1.58, 1.01, 0.94, 1.84, 1.95, 1.75, 0.94, 0.89, 0.0, 0.0, -0.85, -1.62, -1.69, -2.31, -2.31, -2.49, -2.39, -0.77, 2.51, 6.79, 8.42, 7.97, 6.42, 5.06, 3.82, 1.92, 0.93, 0.0, 0.0, 0.0, 0.0, -0.71, -0.71, -0.79, -1.62, -1.54, -1.4, -2.12, -3.55, -5.09, -5.15, -6.08, -5.21, -3.39, 0.0, 0.0, 0.0, -1.25, -1.18, -2.09, -2.67, -2.67, -2.35, -3.33, -8.5, -8.5, -8.5, -8.5, -8.5, -8.5, -8.5, -8.82, -9.08, -9.37, -9.94, -10.59, -10.88, -10.72, -9.5, -8.53, -7.58, -6.62, -6.87, -7.51, -7.55, -7.55, -7.17, -9.53, -7.47, -5.44, -2.6, 1.26, 4.47, 0.0, 4.74, 6.79, 7.15, 5.94, 4.43, 4.74, 4.56, 6.32, 6.32, 5.46, 5.21, 4.2, 4.0, 1.4, 0.0, 1.03, 1.73, 3.4, 2.82, 1.49, 0.0, 0.0, -0.89, -1.84, -2.83, -3.49, -4.07, -4.07, -4.71, -4.2, -1.84, 5.31, 7.76, 8.95, 9.2, 9.03, 8.06, 6.48, 4.18, 1.02, 0.0, -0.82, -1.5, -1.69, -1.62, -1.69, -2.39, -2.39, -2.21, -2.76, -2.35, -2.35, -3.4, -5.21, -5.81, -7.63, -7.27, 0.0, 0.0, 0.0, 0.0, 0.0, -1.01, -0.94, -1.0, -1.65, -1.55, -1.55, -8.78, -8.5, -8.5, -8.5, -8.5, -8.82, -8.82, -8.82, -9.08, -9.42, -10.01, -10.59, -10.65, -11.33, -10.13, -8.68, -7.39, -6.2, -6.31, -5.8, -5.45, -4.58, -3.98, -2.16, -0.74, 0.0, 0.53, 1.04, 0.54, 2.68, 3.79, 5.95, 5.95, 5.95, 5.06, 6.08, 5.93, 6.01, 6.01, 4.96, 4.44, 3.52, 2.98, 1.07, 0.0, 0.0, 3.72, 3.97, 3.2, 1.4, 0.0, -1.63, -2.35, -1.72, -1.84, 0.0, -1.58, -4.2, -5.1, -4.54, 8.49, 8.89, 9.06, 9.54, 9.97, 9.33, 7.67, 6.64, 2.97, 0.0, -1.02, -2.95, -3.65, -4.07, -4.07, -4.07, -3.88, -3.88, -3.44, -3.44, -3.7, -3.21, -3.6, -4.47, -7.37, -8.94, -10.0, -7.59, -2.83, -1.95, -2.32, -1.98, -1.01, -0.94, -0.89, -0.79, -0.79, 0.0, -8.78, -8.78, -8.5, -8.5, -8.82, -8.82, -8.82, -9.08, -9.42, -9.42, -9.72, -10.06, -10.69, -11.33, -10.77, -9.75, -8.93, -7.0, -6.24, -5.9, -4.81, -4.0, -3.1, -1.81, -0.59, 0.0, 0.58, 1.09, 0.57, 0.0, 0.0, 1.98, 2.26, 3.0, 5.06, 5.93, 5.93, 6.01, 4.71, 3.35, 2.46, 1.2, 0.0, 0.0, 0.0, 2.26, 5.81, 5.95, 3.97, 1.73, 0.0, -1.4, 0.0, 3.2, 6.8, 4.43, 2.54, -3.6, -6.52, -3.2, 8.48, 9.83, 9.97, 9.11, 8.14, 7.63, 6.6, 4.87, 2.83, 0.94, 0.0, -2.13, -4.78, -6.04, -5.76, -5.76, -5.49, -4.96, -4.96, -4.96, -4.96, -4.83, -4.14, -3.47, -7.37, -9.39, -10.28, -8.06, -6.7, -5.37, -4.83, -3.68, -2.47, -1.84, -0.74, -0.79, 0.0, 0.0, -8.78, -8.78, -8.5, -8.5, -8.82, -8.82, -8.82, -9.13, -9.13, -9.46, -9.72, -9.77, -10.4, -10.43, -10.76, -10.42, -9.47, -8.19, -7.2, -6.09, -5.7, -4.56, -3.65, -2.47, -1.74, 0.0, 0.0, 1.18, 1.17, 0.56, 0.0, 0.0, 0.0, 1.84, 3.4, 6.44, 6.32, 6.01, 4.83, 1.14, 0.0, 0.0, 0.0, 0.0, 0.0, 5.37, 7.45, 6.8, 3.97, 2.12, 0.0, 0.0, 4.22, 7.21, 6.79, 5.06, 0.0, -2.99, -4.74, 8.05, 8.94, 9.39, 8.48, 6.9, 6.9, 6.44, 5.69, 3.8, 3.8, 1.67, 0.0, -1.84, -4.78, -6.95, -7.41, -7.41, -6.73, -6.39, -5.69, -5.69, -5.69, -5.1, -4.56, -3.72, -2.4, -8.48, -7.6, -7.6, -6.58, -6.8, -6.32, -5.31, -3.72, -2.64, -1.96, 0.0, 0.0, 0.0, -8.78, -8.78, -8.5, -8.5, -8.82, -8.82, -9.13, -9.13, -9.13, -9.46, -10.06, -10.09, -10.12, -10.43, -10.13, -9.84, -9.48, -9.07, -7.92, -6.71, -5.65, -4.22, -3.65, -2.31, -1.17, 0.0, 0.58, 1.16, 1.17, 1.16, 0.0, -0.58, -0.67, 0.0, 1.58, 3.72, 6.01, 5.53, 2.83, 0.0, -0.94, -0.94, -1.4, 0.0, 1.49, 6.8, 8.05, 7.81, 6.32, 4.22, 1.84, 3.4, 4.56, 4.56, 3.4, 1.73, 0.0, -2.83, 0.0, 5.7, 8.8, 9.04, 6.63, 5.03, 3.2, 1.84, 2.12, 4.0, 4.0, 0.0, -0.84, -3.06, -5.21, -6.73, -7.42, -5.82, -4.11, -3.63, -2.6, -2.8, -2.8, -3.33, -4.58, -5.37, -2.26, 0.0, -5.94, -6.71, -6.71, -6.64, -7.67, -5.37, -3.97, -2.99, -1.73, -0.83, 0.0, 0.0, -8.78, -8.78, -8.5, -8.82, -8.82, -9.08, -9.13, -9.13, -9.46, -9.46, -9.77, -10.09, -9.8, -9.82, -9.84, -9.5, -9.49, -9.09, -8.14, -7.2, -5.98, -4.22, -3.52, -1.74, 0.0, 0.0, 0.0, 0.59, 0.6, 0.58, 0.0, -1.17, -1.06, 0.0, 0.0, 2.67, 3.77, 4.37, 1.49, 0.0, -1.4, -0.95, 0.0, 0.0, 3.6, 7.6, 8.33, 7.6, 6.01, 5.1, 4.37, 4.37, 4.37, 4.6, 2.83, 1.47, 0.0, 0.0, 3.61, 6.71, 7.9, 6.95, 5.59, 3.8, 1.32, 0.83, 0.0, 0.0, 0.0, -3.15, -4.96, -5.94, -5.77, -5.6, -5.94, 1.98, 3.2, 2.83, 2.54, 1.67, 0.8, 0.0, -1.73, -4.47, -6.7, -4.74, -4.11, -6.71, -7.01, -8.77, -8.3, -7.28, -6.01, -3.8, -2.69, -1.96, -0.89, -0.89, -8.78, -8.78, -8.78, -8.82, -9.08, -9.08, -9.13, -9.13, -9.46, -9.46, -9.48, -9.77, -9.8, -9.82, -9.5, -8.86, -9.12, -8.83, -7.73, -6.56, -5.49, -4.73, -4.07, -1.76, 0.0, 0.0, -0.59, -0.59, -0.57, -1.15, -1.74, -1.14, -0.56, -0.69, 0.0, 0.0, 0.0, -1.4, -1.25, 0.0, 0.0, 0.0, 0.0, 2.4, 5.69, 7.15, 7.67, 7.15, 5.36, 4.6, 4.6, 4.6, 4.0, 4.0, 2.83, 2.58, 2.58, 3.87, 5.1, 6.98, 5.98, 5.72, 3.7, 2.46, 1.2, 0.0, 0.0, -1.58, -4.37, -5.86, -4.71, -3.72, -1.58, 3.65, 6.5, 7.14, 5.57, 5.06, 3.91, 3.07, 2.41, 0.79, 0.0, -7.47, -7.2, -6.32, -7.37, -6.26, -7.15, -8.05, -8.33, -8.3, -7.67, -6.64, -4.6, -2.82, -1.98, -1.98, -8.78, -8.78, -8.78, -9.08, -9.08, -9.08, -9.13, -9.13, -9.46, -9.17, -9.48, -9.48, -9.5, -9.5, -9.5, -9.77, -8.86, -8.86, -7.16, -5.46, -5.3, -5.9, -5.81, -4.81, -3.28, -3.37, -3.41, -3.98, -3.98, -2.85, -2.28, -0.55, 0.0, -1.23, -2.12, -2.64, -3.47, -3.6, -3.65, -1.33, 0.0, 1.0, 1.32, 2.54, 5.31, 5.59, 5.86, 4.83, 4.83, 4.83, 4.6, 4.0, 4.0, 2.83, 4.0, 3.7, 3.7, 4.88, 5.98, 5.98, 5.1, 3.87, 2.58, 0.8, 0.0, 0.0, -0.84, -1.65, -2.57, -2.71, 0.0, 1.97, 4.81, 6.27, 6.09, 4.38, 2.54, 0.83, 0.8, 0.77, 0.0, -0.81, -3.35, -7.63, -8.77, -8.67, -8.94, -7.89, -8.05, -6.71, -7.45, -8.06, -8.43, -5.63, -2.17, -1.49, 0.0, 0.0, -8.78, -9.02, -9.02, -9.08, -9.08, -9.08, -9.13, -9.13, -9.46, -9.46, -9.17, -9.48, -9.19, -9.5, -9.5, -8.86, -8.87, -8.24, -8.3, -7.49, -7.27, -7.84, -8.77, -8.74, -8.86, -7.93, -7.23, -4.98, -4.51, -2.77, -1.1, 0.0, 0.0, 0.0, 0.0, -2.76, -3.32, -3.85, -2.86, -1.75, 0.0, 1.16, 2.25, 2.77, 4.0, 3.45, 4.0, 4.2, 2.97, 3.32, 3.32, 2.83, 2.83, 4.0, 3.6, 5.36, 5.98, 5.76, 5.46, 3.61, 2.58, 1.33, 0.0, 0.0, 0.0, -0.84, -0.84, -1.65, -0.89, 0.0, 0.8, 3.2, 4.79, 3.96, 2.4, 0.0, -0.79, -2.47, -2.37, -1.58, -1.56, -1.54, -2.51, -6.23, -7.15, -7.15, -6.71, -6.17, -7.06, -5.81, -7.06, -7.81, -6.32, 8.0, 6.7, 5.37, 4.02, 4.02, -9.02, -9.02, -9.02, -9.08, -9.08, -9.08, -9.13, -9.13, -9.13, -9.46, -9.17, -9.48, -9.19, -9.5, -9.5, -9.21, -8.59, -8.24, -8.85, -10.65, -10.32, -8.81, -9.21, -8.83, -8.81, -7.73, -5.77, -4.02, -2.75, -1.11, 0.0, 0.53, 0.55, 0.63, 0.0, 0.0, -1.35, -1.98, -2.4, -1.78, 0.0, 0.58, 1.69, 2.9, 3.49, 3.61, 2.46, 2.58, 2.97, 2.83, 1.4, 1.4, 2.83, 4.6, 5.86, 5.53, 6.48, 6.53, 5.32, 2.58, 1.26, 0.0, 0.0, 0.0, -0.84, -0.84, -1.55, -0.84, 0.0, 0.0, 1.63, 3.25, 3.9, 2.4, 0.0, -2.44, -5.63, -6.52, -6.43, -4.87, -4.01, -3.25, -3.4, -6.36, -6.26, -5.81, -5.81, -5.36, -5.81, -6.26, -7.6, 0.0, 6.36, 6.71, 6.61, 6.23, 4.98, 4.98, -9.02, -9.02, -9.02, -9.37, -9.08, -9.08, -9.13, -9.13, -9.13, -9.13, -9.17, -9.17, -9.19, -9.19, -9.21, -8.87, -8.59, -8.59, -9.5, -10.13, -9.47, -7.55, -6.96, -6.94, -7.53, -6.36, -4.7, -2.85, -1.69, -0.57, 0.0, 0.0, 0.0, 0.54, 0.55, 0.0, 0.0, -0.57, -1.1, -1.09, -0.54, 0.0, 0.56, 1.11, 2.19, 2.73, 2.28, 1.33, 0.0, 0.0, 0.0, 1.4, 3.32, 5.36, 6.64, 7.33, 7.06, 7.27, 5.98, 2.46, 0.0, 0.0, -0.85, -1.67, -1.67, -1.75, -1.55, 0.0, 1.84, 3.8, 3.7, 5.64, 5.55, 3.04, -4.01, -6.44, -8.36, -9.37, -9.43, -8.44, -6.87, -5.09, -4.26, -7.06, -7.06, -6.26, -5.36, -5.81, -6.71, -7.5, -0.0, 6.08, 5.4, 4.92, 5.36, 4.98, 4.65, 4.65, -9.02, -9.02, -9.02, -9.02, -9.08, -9.08, -9.08, -9.13, -9.13, -9.13, -8.56, -8.87, -8.58, -8.87, -8.87, -8.87, -8.87, -8.86, -9.49, -9.47, -8.37, -6.64, -5.17, -5.2, -5.83, -5.28, -4.74, -3.61, -2.83, -1.72, -1.12, -0.55, 0.0, 0.0, 0.0, 0.0, 0.0, 0.0, -0.54, -0.54, -0.58, 0.0, 0.0, 0.57, 1.16, 2.26, 1.16, 0.0, 0.0, 0.0, 0.0, 1.84, 5.36, 7.15, 7.15, 8.05, 7.28, 7.06, 6.3, 3.6, 0.94, -0.89, -2.31, -2.44, -2.54, -1.55, 0.0, 3.22, 5.82, 6.18, 4.83, 3.32, 0.8, 0.0, -2.49, -5.69, -8.6, -9.85, -10.82, -10.47, -9.17, -7.36, -5.89, -6.36, -6.88, -6.21, -5.81, -5.81, -6.26, -0.0, 4.56, 5.24, 5.2, 4.77, 4.92, 4.34, 3.79, 3.79, -8.78, -8.78, -8.78, -8.78, -8.82, -8.82, -8.82, -8.85, -8.85, -8.85, -8.85, -8.87, -8.87, -8.87, -8.59, -8.59, -8.87, -8.86, -8.83, -8.81, -7.48, -6.6, -5.92, -5.28, -5.11, -4.62, -4.62, -4.07, -3.39, -2.94, -1.73, -1.13, -1.16, -0.56, -0.57, 0.0, 0.0, 0.0, 0.0, -0.56, -0.56, -0.57, 0.0, 0.0, 0.55, 0.56, 0.0, 0.0, 0.0, 0.0, 1.47, 3.32, 5.36, 6.01, 7.15, 7.15, 6.28, 6.01, 5.59, 4.96, 1.63, 0.0, -1.73, -1.73, -1.84, 0.0, 5.21, 8.22, 7.42, 6.18, 3.4, -4.08, -1.6, 0.0, 0.0, -1.14, -5.69, -9.32, -10.04, -10.79, -10.45, -8.53, -6.51, -5.69, -5.36, -5.73, -5.81, 5.81, 6.07, 6.71, 3.22, 3.84, 4.65, 5.21, 5.6, 5.81, 3.79, 3.79, -8.78, -8.78, -8.78, -8.78, -8.78, -8.78, -8.82, -8.53, -8.53, -8.85, -8.85, -8.56, -8.87, -8.58, -8.87, -8.23, -8.59, -8.58, -8.85, -8.18, -7.5, -7.06, -6.6, -5.88, -5.42, -4.58, -4.1, -4.1, -3.41, -2.87, -2.32, -1.77, -1.72, -1.17, -1.12, -0.57, -0.57, -0.57, -0.57, -0.58, -0.59, -0.56, 0.0, 0.0, 0.0, 0.0, -0.57, 0.0, 0.0, 0.62, 1.71, 2.58, 3.15, 5.1, 6.01, 6.32, 6.32, 3.4, 1.95, 2.99, 2.69, 0.89, 0.0, 0.0, 0.88, 5.75, 8.63, 8.82, 7.82, 2.99, -1.04, -3.67, -1.21, 0.78, 1.57, 1.6, 0.69, -1.84, -6.63, -9.2, -10.65, -9.82, -8.53, -5.18, -2.17, 0.0, 3.79, 5.21, 5.82, 5.09, 5.01, 4.11, 5.01, 4.74, 4.11, 5.36, 5.06, 5.06, -8.78, -8.78, -8.78, -8.78, -8.78, -8.78, -8.5, -8.82, -8.53, -8.53, -8.85, -8.56, -8.87, -8.58, -8.24, -8.23, -8.22, -8.49, -8.2, -7.93, -7.76, -7.5, -7.06, -6.36, -5.88, -5.21, -4.74, -4.07, -3.41, -2.87, -2.24, -1.71, -1.72, -1.17, -1.12, -1.18, -1.12, -0.56, -0.56, -0.57, -0.58, -0.59, 0.0, 0.0, 0.0, 0.0, 0.0, 0.0, 0.0, 0.0, 0.56, 0.58, 1.2, 3.15, 4.0, 5.36, 3.8, 1.95, 1.84, 1.95, 2.69, 2.46, 1.65, 1.63, 4.11, 8.33, 9.06, 8.3, 5.37, 3.17, 0.0, -2.71, -2.61, -0.81, 0.79, 2.33, 2.13, 0.0, -2.4, -7.2, -8.63, -7.95, -6.58, -2.9, 0.8, 4.26, 5.77, 5.77, 5.37, 4.36, 3.22, 5.94, 4.11, 4.11, 4.11, -0.0, 0.0, 0.0, -8.78, -8.78, -8.78, -8.78, -8.78, -8.78, -8.5, -8.5, -8.53, -8.53, -8.85, -8.56, -8.56, -8.87, -8.24, -8.23, -8.22, -8.22, -7.95, -7.8, -7.53, -7.53, -7.06, -6.6, -6.4, -5.7, -5.21, -4.03, -3.5, -3.53, -2.87, -2.87, -2.26, -1.72, -1.74, -1.17, -1.12, -1.17, -1.17, -0.56, -0.56, -0.57, -0.58, 0.0, 0.0, 0.0, 0.0, 0.0, 0.0, 0.0, 0.0, 0.0, 0.0, 0.58, 1.07, 2.54, 1.75, 1.58, 1.25, 1.18, 1.4, 1.67, 1.16, 1.84, 7.2, 8.33, 8.56, 5.69, 3.77, 1.0, 0.0, -2.71, -3.29, -2.53, 0.0, 0.8, 0.78, 0.0, -1.6, -5.59, -7.6, -6.71, 0.0, 4.11, 6.23, 6.4, 6.32, 5.84, 4.58, 3.72, 2.11, 3.48, 4.11, 4.8, 4.11, -0.0, 0.0, 0.0, -8.45, -8.45, -8.45, -8.45, -8.45, -8.78, -8.5, -8.5, -8.5, -8.53, -8.24, -8.24, -8.24, -8.24, -8.24, -8.23, -8.23, -8.22, -7.83, -7.55, -7.55, -7.1, -7.1, -6.85, -6.4, -5.92, -5.42, -5.25, -4.74, -4.07, -3.53, -2.87, -2.9, -2.26, -2.28, -1.72, -1.66, -1.11, -1.11, -1.11, -1.12, -1.14, -0.58, 0.0, 0.0, 0.0, 0.0, 0.0, 0.0, -0.59, -0.56, -0.57, -0.59, 0.0, 0.0, 0.0, 0.0, 0.0, 1.25, 2.4, 0.0, 0.0, 0.0, 2.67, 7.76, 9.21, 6.73, 4.26, 1.0, 0.0, 0.0, -1.69, -2.51, -3.42, -3.42, -3.19, -3.19, -2.31, -2.64, -4.02, 1.99, 2.48, 2.23, 3.83, 5.81, 6.26, 5.94, 5.59, 4.19, 3.0, 1.7, 3.49, 5.2, 3.79, 5.69, -0.0, -8.49, -8.49, -8.45, -8.45, -8.45, -8.45, -8.45, -8.45, -8.19, -8.22, -8.22, -8.22, -8.24, -7.95, -8.24, -8.24, -8.24, -7.96, -8.23, -7.96, -7.57, -7.55, -7.55, -6.88, -7.1, -6.88, -6.43, -6.22, -5.77, -5.28, -4.77, -4.07, -3.41, -3.41, -2.9, -2.8, -2.93, -2.28, -2.28, -1.72, -1.72, -1.11, -1.17, -1.18, -1.15, -0.79, 0.0, 0.0, 0.0, -1.69, -2.25, -1.15, -1.11, -1.12, -1.09, -1.12, -1.16, -1.19, -1.4, 0.0, 1.25, 1.25, 0.0, -0.8, 0.0, 5.15, 8.17, 7.82, 7.06, 4.83, 1.07, -1.05, -2.04, -1.76, -2.44, -4.06, -5.8, -6.43, -6.21, -5.38, -5.81, -1.8, 2.53, 2.58, 2.6, 3.09, 4.24, 5.36, 5.81, 5.21, 3.0, 2.12, 1.84, 2.6, 4.02, 5.06, -0.0, 0.0, -8.49, -8.49, -8.45, -8.45, -8.19, -8.19, -8.19, -8.19, -8.19, -7.9, -8.22, -8.22, -7.93, -7.95, -8.24, -8.24, -8.24, -7.96, -8.23, -7.96, -7.57, -7.57, -7.55, -7.13, -7.13, -6.46, -6.46, -6.46, -6.0, -5.32, -4.62, -4.62, -4.1, -3.56, -3.44, -2.8, -2.93, -2.82, -2.28, -2.28, -2.28, -1.66, -1.74, -1.67, -1.69, -1.73, -1.14, 0.0, 0.0, -1.75, -2.23, -2.92, -2.4, -2.4, -2.23, -1.76, -2.36, -2.36, -2.18, -1.16, 0.0, 0.0, 0.0, -0.84, 1.84, 6.52, 6.91, 6.55, 6.55, 6.63, 2.26, -2.33, -5.21, -3.98, -1.77, -1.65, -4.0, -6.8, -6.4, -5.51, -4.43, -4.43, 0.88, 1.11, 1.73, 2.6, 3.09, 4.66, 5.36, 5.94, 3.0, 2.49, 2.26, 1.84, 1.84, 8.05, -0.0, 0.0, -8.05, -8.05, -8.19, -8.19, -8.19, -8.19, -8.19, -8.19, -8.19, -7.9, -7.9, -8.22, -7.93, -7.93, -7.95, -8.24, -7.96, -8.24, -7.96, -7.85, -7.57, -7.57, -7.31, -6.9, -6.9, -6.46, -6.46, -6.25, -5.8, -5.14, -4.65, -4.46, -4.1, -4.1, -3.44, -3.44, -2.93, -2.82, -2.39, -2.3, -2.3, -2.3, -1.74, -1.67, -1.69, -1.73, -2.19, -3.16, -2.44, -1.67, -1.12, -1.07, -1.19, -2.2, -2.2, -2.32, -2.82, -2.82, -2.82, -2.36, -1.07, 0.0, 0.0, 0.0, 4.21, 6.01, 5.44, 5.03, 4.29, 5.37, 1.84, -1.67, -4.44, -4.2, -0.98, 0.0, -0.87, -3.95, -5.62, -5.55, -3.91, -2.4, -2.2, -0.0, 0.7, 2.84, 2.98, 3.44, 3.13, 6.07, 3.47, 3.4, 1.32, 1.01, 0.78, 0.0, 0.0, -7.15, -6.71, -6.71, -8.19, -8.19, -8.19, -8.19, -8.19, -8.19, -8.19, -7.9, -7.9, -7.9, -7.93, -7.93, -8.24, -7.95, -7.96, -7.87, -7.59, -7.59, -7.59, -7.32, -7.16, -7.16, -6.9, -6.25, -6.25, -5.8, -5.83, -5.17, -5.67, -4.68, -4.65, -4.65, -4.13, -3.47, -3.47, -2.82, -2.82, -2.39, -2.39, -2.3, -2.3, -2.21, -2.33, -2.35, -2.77, -3.39, -2.84, -1.12, -0.56, 0.0, 0.0, -0.84, -0.89, -1.96, -2.82, -3.08, -3.49, -3.49, -2.4, -1.73, 0.0, 1.14, 4.71, 3.99, 3.35, 2.33, 0.0, 0.0, 0.0, 0.0, 0.0, 0.0, 0.0, 1.23, 0.87, -1.51, -4.04, -4.98, -4.81, -2.81, -0.71, 0.0, 1.44, 2.2, 2.84, 3.87, 3.54, 2.97, 3.47, 1.73, 0.0, 0.0, 0.0, 0.0, 0.0, -7.15, -6.4, -6.4, -7.86, -7.86, -7.86, -7.86, -7.86, -8.19, -8.19, -7.9, -7.9, -7.9, -7.93, -7.61, -7.61, -7.61, -7.6, -7.6, -7.59, -7.33, -7.59, -6.92, -6.92, -6.92, -6.5, -6.5, -6.5, -5.83, -5.83, -5.62, -5.17, -5.38, -4.72, -4.72, -4.02, -4.02, -3.5, -3.5, -2.96, -2.82, -2.82, -2.39, -2.3, -2.3, -2.33, -2.23, -2.23, -2.87, -2.84, -1.72, -1.17, -0.57, -0.59, -0.59, -0.74, -0.85, -1.84, -3.33, -4.36, -4.07, -3.78, -2.66, 0.0, 2.54, 3.32, 2.4, 2.21, 1.14, 0.0, -1.07, -1.67, 0.0, 2.06, 3.8, 2.04, 0.0, -0.82, -1.57, -1.53, -1.7, -1.52, -0.72, 0.0, 1.38, 2.12, 3.64, 2.67, 2.77, 2.91, 2.79, 2.8, 0.0, 0.0, 0.0, -0.95, -0.83, -1.07, -7.6, -7.21, -7.21, -7.86, -7.86, -7.86, -7.86, -7.86, -7.86, -8.19, -7.6, -7.6, -7.6, -7.6, -7.61, -7.61, -7.61, -7.61, -7.6, -7.6, -6.94, -6.94, -6.94, -6.92, -6.92, -6.5, -6.5, -6.5, -5.83, -5.83, -5.83, -5.83, -5.14, -4.51, -4.05, -4.08, -3.89, -3.39, -3.39, -3.37, -2.84, -2.96, -2.96, -2.84, -2.3, -2.21, -2.33, -2.33, -2.33, -2.3, -2.28, -1.74, -1.67, -1.76, -1.15, -1.16, -1.26, -1.95, -2.82, -3.79, -4.02, -4.07, -2.88, 0.0, 1.95, 1.95, 1.95, 1.18, 1.25, 0.0, 0.0, 0.0, 0.0, 1.95, 3.11, 1.39, -1.7, -3.3, -1.65, 0.0, 1.55, 2.14, 1.41, 1.36, 1.38, 2.12, 2.16, 2.09, 1.58, 1.53, 1.58, 1.23, 0.0, 0.0, -1.32, -1.84, -1.41, -1.72, -4.22, -7.21, -7.21, -7.86, -7.86, -7.59, -7.59, -7.59, -7.59, -7.3, -7.6, -7.6, -7.6, -7.6, -7.32, -7.61, -7.61, -7.33, -7.33, -6.96, -6.96, -6.94, -6.94, -6.94, -6.27, -6.27, -6.27, -5.83, -5.83, -5.83, -5.83, -5.83, -5.14, -4.68, -4.02, -3.53, -3.39, -3.39, -3.42, -3.39, -3.39, -2.99, -2.84, -2.84, -2.84, -2.33, -2.33, -2.21, -2.3, -2.3, -2.39, -2.3, -2.3, -2.33, -2.33, -2.35, -2.28, -2.46, -2.5, -3.14, -2.96, -3.0, -1.45, 0.0, 2.06, 1.95, 1.95, 1.58, 1.58, 1.25, 1.07, 1.07, 1.0, 0.94, 1.47, 0.0, 0.0, -1.58, 0.0, 2.44, 4.1, 4.07, 2.3, 0.71, 0.0, 0.0, 0.0, 0.69, 0.51, 0.56, 0.0, 0.0, -1.63, -2.12, -2.8, -1.84, -2.29, -1.6, -1.52, -6.8, -6.8, -7.59, -7.59, -7.59, -7.59, -7.59, -7.59, -7.3, -7.3, -7.6, -7.6, -7.6, -7.32, -7.32, -7.32, -7.61, -6.97, -6.96, -6.96, -6.96, -6.94, -6.53, -6.53, -6.27, -6.27, -5.83, -5.83, -5.83, -5.83, -5.36, -5.36, -4.68, -4.68, -4.02, -3.86, -3.53, -3.39, -3.42, -3.42, -2.87, -2.87, -2.87, -2.87, -2.33, -2.33, -2.21, -2.3, -2.28, -2.82, -2.96, -2.84, -2.87, -3.03, -2.9, -2.93, -2.97, -2.83, -2.86, -2.89, -2.4, -1.32, -0.78, 0.0, 0.0, 1.25, 1.14, 1.75, 2.21, 1.05, 0.0, 0.0, 0.0, 0.0, 1.28, 1.6, 0.81, 0.0, 0.77, 2.5, 1.73, 0.79, 0.0, 0.0, -0.71, -0.7, -0.71, -0.68, -0.75, -0.8, -2.4, -4.83, -5.1, -5.03, -4.47, -3.0, -2.16, -1.52, -3.0, -3.0, -7.59, -7.59, -7.59, -7.59, -7.59, -7.59, -7.59, -7.3, -7.3, -7.6, -7.6, -7.32, -7.32, -7.32, -6.98, -6.97, -6.97, -6.96, -6.96, -6.29, -6.29, -6.29, -6.53, -6.08, -5.62, -5.62, -5.62, -5.83, -5.17, -5.17, -5.17, -4.68, -4.68, -4.02, -4.02, -3.37, -3.53, -3.39, -2.87, -2.87, -2.75, -2.9, -2.25, -2.44, -1.69, -2.3, -2.82, -3.47, -3.34, -3.37, -3.39, -3.57, -2.9, -2.93, -2.8, -2.83, -2.83, -2.86, -1.73, -1.76, -1.45, -0.89, 0.0, 0.0, 1.14, 1.47, 1.14, 0.0, 0.0, 0.0, 0.0, 0.0, 1.54, 2.28, 1.62, 0.0, -0.78, -1.66, -1.73, -1.65, -0.78, -0.69, -0.7, -0.68, -1.5, -1.43, -2.28, -2.98, -4.96, -6.64, -7.33, -6.32, -5.69, -5.06, -3.97, -2.12, 0.0, 0.0, -7.59, -7.59, -7.59, -7.59, -7.59, -7.59, -7.59, -7.3, -7.3, -7.3, -7.6, -7.6, -7.32, -6.98, -6.98, -6.71, -6.97, -6.7, -6.96, -6.56, -6.29, -6.29, -6.29, -5.86, -5.86, -5.62, -5.62, -5.62, -5.17, -5.17, -5.17, -4.98, -4.51, -4.51, -4.51, -4.02, -3.5, -3.37, -3.39, -2.87, -2.9, -2.9, -2.8, -2.51, -1.79, -2.28, -3.47, -4.13, -3.99, -4.02, -4.05, -3.57, -3.42, -3.45, -3.49, -3.32, -2.83, -2.86, -2.4, -1.76, -1.98, -1.41, 0.0, 0.0, 0.0, 0.0, 0.0, 0.0, 0.0, 0.0, 0.0, 0.0, 0.0, 0.85, 1.67, 0.84, 0.0, -2.63, -4.07, -3.22, -2.16, -1.38, -0.68, -1.42, -1.39, -2.28, -3.06, -4.0, -6.64, -7.68, -7.33, -6.32, -5.59, -6.01, -5.69, -5.06, -2.26, 0.0, -7.27, -7.27, -7.27, -7.59, -7.59, -7.59, -7.59, -7.3, -7.3, -7.3, -7.3, -7.3, -7.27, -6.98, -6.98, -6.98, -6.71, -6.97, -6.7, -6.31, -6.56, -6.29, -6.29, -5.86, -5.86, -5.86, -5.62, -5.62, -5.17, -5.17, -5.2, -5.2, -4.72, -4.51, -4.51, -4.51, -4.02, -4.02, -3.37, -3.53, -3.39, -2.9, -3.45, -3.49, -3.19, -2.93, -4.1, -5.17, -4.72, -4.54, -3.89, -4.08, -3.91, -3.94, -3.49, -3.49, -3.52, -2.89, -2.92, -2.29, -2.32, -2.2, -0.82, 0.0, 0.0, 0.0, 0.0, 0.0, 0.0, 0.0, 0.0, 0.0, 0.0, 0.0, 1.38, 3.69, 2.72, 0.0, -2.37, -3.53, -3.47, -2.72, -2.18, -2.14, -2.1, -2.11, -3.06, -4.74, -7.21, -7.81, -7.81, -6.32, -5.86, -6.32, -8.06, -7.6, -5.06, -2.26, -7.27, -7.27, -7.27, -7.27, -7.59, -7.59, -7.59, -7.59, -7.3, -7.3, -7.3, -7.3, -6.98, -6.98, -6.98, -6.98, -6.98, -6.71, -6.97, -6.31, -6.31, -6.31, -6.31, -6.29, -5.86, -5.86, -5.86, -5.86, -5.86, -5.2, -5.2, -5.2, -5.2, -4.72, -4.72, -4.72, -4.72, -4.02, -4.02, -4.05, -3.53, -3.57, -3.42, -3.94, -4.57, -4.87, -4.48, -4.57, -3.94, -4.12, -4.6, -4.6, -4.12, -3.94, -4.16, -3.97, -3.52, -2.89, -2.92, -2.96, -2.49, -2.36, -1.67, -1.58, 0.0, 0.0, 0.0, 0.0, 0.0, 0.0, 1.0, 0.0, -1.47, -2.97, -1.39, 1.5, 2.18, 0.0, -2.49, -3.95, -4.23, -4.32, -4.24, -3.6, -3.53, -2.89, -2.83, -4.34, -6.32, -7.76, -7.44, -5.72, -4.0, -5.1, -7.63, -8.05, -7.63, -7.63, -7.55, -7.55, -7.27, -7.27, -7.27, -7.27, -7.59, -7.59, -7.59, -7.3, -7.3, -6.98, -6.98, -6.98, -6.98, -6.98, -6.98, -6.98, -6.71, -6.97, -6.31, -6.31, -6.31, -6.31, -5.64, -5.86, -5.86, -5.86, -5.86, -5.2, -5.2, -5.2, -5.2, -5.2, -4.72, -4.72, -4.54, -4.54, -4.54, -4.05, -4.05, -3.89, -4.08, -4.57, -5.17, -5.32, -3.99, -2.9, -3.3, -3.49, -4.16, -4.16, -4.63, -4.63, -4.42, -3.97, -3.52, -3.56, -2.89, -2.75, -2.77, -2.32, -2.2, -1.75, 0.0, 0.0, 0.0, 0.0, 1.07, 1.0, 1.0, 0.0, -2.97, -3.8, -4.6, -4.4, -2.16, -1.23, -2.64, -3.96, -4.8, -5.35, -5.86, -5.3, -4.6, -4.92, -4.6, -4.99, -6.98, -9.32, -8.55, -6.3, -5.21, -4.6, -8.49, -8.49, -8.49, -8.49, -7.55, -7.55, -7.55, -7.27, -7.27, -7.27, -7.27, -7.27, -7.59, -7.59, -7.3, -6.98, -6.98, -6.98, -6.98, -6.98, -6.98, -6.98, -6.71, -6.97, -6.58, -6.58, -6.31, -6.31, -6.31, -5.64, -5.86, -5.86, -5.64, -5.64, -5.2, -5.2, -5.2, -5.2, -5.2, -4.54, -4.54, -4.54, -4.54, -4.54, -4.54, -4.05, -4.54, -4.54, -4.68, -4.65, -3.47, -2.84, -2.87, -2.9, -3.27, -3.45, -3.97, -4.2, -4.0, -4.0, -4.03, -3.56, -3.37, -3.4, -2.96, -3.0, -2.54, -1.75, 0.0, 0.0, 1.67, 1.67, 2.09, 2.21, 1.0, -1.05, -3.14, -4.78, -5.29, -5.29, -3.67, -1.06, 0.0, 0.0, 0.0, -1.58, -3.04, -4.0, -4.43, -5.2, -5.43, -6.44, -7.59, -8.59, -8.93, -7.44, -6.2, -8.4, -8.94, -8.49, -8.49, -8.49, -7.55, -7.55, -7.55, -7.55, -7.27, -7.27, -7.27, -7.27, -7.27, -7.27, -7.28, -6.98, -6.98, -6.98, -6.98, -6.7, -6.98, -6.98, -6.98, -6.71, -6.71, -6.33, -6.58, -6.31, -6.31, -6.31, -5.64, -5.64, -5.64, -5.64, -5.64, -5.2, -5.2, -5.2, -5.0, -5.0, -4.76, -4.54, -4.54, -4.54, -4.54, -4.54, -4.54, -4.72, -4.51, -4.68, -3.99, -3.47, -3.34, -3.5, -3.53, -3.42, -3.45, -3.49, -4.0, -4.03, -4.03, -3.81, -3.37, -3.4, -2.75, -2.96, -3.0, -2.72, -1.47, 0.0, 1.75, 2.21, 3.35, 2.21, 0.0, -1.14, -3.14, -3.99, -4.6, -3.51, -1.76, 0.0, 0.0, 2.0, 4.45, 5.55, 4.27, 2.04, 0.0, -0.86, -1.84, -3.53, -6.2, -7.9, -8.22, -7.26, -6.2, -8.8, -9.83, -9.39, -9.39, -9.39, -7.55, -7.55, -7.55, -7.55, -7.55, -7.27, -7.27, -7.27, -7.27, -7.27, -6.97, -7.28, -6.98, -6.98, -6.98, -6.98, -6.98, -6.98, -6.98, -6.98, -6.71, -6.71, -6.33, -6.58, -6.31, -6.31, -6.31, -5.89, -5.89, -5.89, -5.89, -5.64, -5.2, -5.2, -5.0, -5.23, -5.23, -5.23, -4.76, -4.76, -4.54, -4.54, -4.54, -4.72, -4.51, -4.51, -4.68, -4.17, -3.99, -4.17, -4.02, -3.37, -3.39, -3.42, -3.45, -4.0, -4.03, -3.81, -3.6, -3.4, -3.2, -2.96, -3.2, -2.72, -1.45, 0.0, 0.0, 0.0, 0.0, 0.0, -1.2, -2.06, -2.17, -2.97, -2.83, -2.02, -0.89, 0.0, 0.0, 2.39, 4.8, 6.08, 4.77, 3.43, 2.34, 0.71, 0.0, 0.0, -1.05, -4.15, -7.9, -7.15, -7.15, -9.2, -10.28, -9.7, -9.7, -9.7, -7.55, -7.55, -7.55, -7.55, -7.55, -7.55, -7.27, -7.27, -6.97, -6.97, -6.97, -6.97, -6.98, -6.98, -6.98, -6.98, -6.98, -6.98, -6.98, -6.98, -6.98, -6.98, -6.33, -6.33, -6.58, -6.31, -6.31, -5.89, -5.89, -5.89, -5.89, -5.89, -5.89, -5.2, -5.23, -5.23, -5.23, -5.23, -5.23, -5.23, -5.23, -5.0, -5.2, -5.2, -5.2, -4.51, -4.68, -4.68, -4.68, -4.68, -4.02, -4.02, -3.86, -4.05, -3.45, -3.49, -3.52, -3.56, -3.37, -3.4, -3.4, -2.96, -3.0, -2.72, -2.2, -1.75, 0.0, 0.0, -1.47, -1.0, -2.06, -2.06, -2.17, -2.04, -1.09, -1.02, -0.89, -0.83, 0.0, 1.64, 3.34, 4.55, 4.77, 4.16, 3.12, 1.4, 0.0, 0.0, 0.0, -3.11, -6.3, -7.27, -8.24, -9.6, -10.73, -10.14, -10.14, -10.14, -7.55, -7.55, -7.23, -7.23, -7.23, -7.23, -7.55, -6.97, -6.97, -6.97, -6.97, -6.97, -6.97, -6.98, -6.98, -6.98, -6.98, -6.98, -6.98, -6.98, -6.98, -6.98, -6.98, -6.33, -6.33, -6.58, -6.31, -6.31, -5.89, -5.89, -5.67, -5.89, -5.89, -5.89, -5.67, -5.23, -5.23, -5.23, -5.23, -5.23, -5.23, -5.0, -5.2, -5.2, -5.2, -5.2, -5.17, -4.68, -4.68, -4.68, -4.51, -4.51, -4.72, -4.05, -4.08, -3.94, -3.49, -3.52, -3.35, -3.37, -2.92, -2.96, -3.2, -2.72, -2.04, -1.67, -1.67, -1.47, 0.0, 0.0, 0.0, -1.11, -1.04, -1.09, -0.98, -1.02, -0.93, 0.0, 0.93, 1.7, 1.64, 2.64, 3.59, 5.04, 3.86, 2.15, 0.0, -0.71, -1.41, -2.15, -3.99, -6.64, -7.21, -8.4, -9.83, -9.83, -9.83, -9.83, -7.23, -7.23, -7.23, -7.23, -7.23, -7.23, -6.95, -6.95, -6.97, -6.97, -6.97, -6.97, -6.97, -7.28, -6.98, -6.98, -6.98, -6.98, -6.98, -6.7, -6.7, -6.7, -6.98, -6.98, -6.33, -6.33, -6.33, -6.31, -6.31, -5.67, -5.67, -5.67, -5.89, -5.89, -5.67, -5.67, -5.67, -5.67, -5.23, -5.23, -5.23, -5.23, -5.44, -5.2, -5.2, -5.2, -5.4, -5.17, -5.17, -5.17, -4.51, -4.72, -4.72, -4.54, -4.57, -4.12, -3.94, -3.97, -3.32, -3.35, -2.89, -2.92, -2.96, -3.0, -2.8, -2.09, -1.14, 0.0, 0.0, 0.0, 0.0, -0.98, -1.09, -1.14, -1.14, -1.02, 0.0, 0.0, 0.93, 0.89, 0.86, 0.83, 2.47, 3.49, 3.01, 1.4, -1.42, -2.82, -2.76, -2.88, -3.61, -6.4, -7.64, -8.22, -8.85, -8.94, -8.94, -8.94, -7.51, -7.51, -7.51, -7.23, -7.23, -7.23, -6.95, -6.95, -6.95, -6.97, -6.97, -6.97, -6.97, -6.97, -6.98, -6.98, -6.98, -6.98, -6.98, -6.98, -6.98, -6.7, -6.7, -6.98, -6.61, -6.33, -6.33, -6.33, -6.33, -6.33, -5.67, -5.67, -5.67, -5.67, -5.67, -5.67, -5.67, -5.67, -5.67, -5.67, -5.67, -5.67, -5.89, -5.67, -5.89, -5.64, -5.64, -5.86, -5.17, -5.17, -5.4, -5.2, -5.2, -4.76, -4.57, -4.6, -4.6, -4.16, -3.97, -3.52, -3.35, -2.89, -2.92, -3.2, -3.26, -3.17, -2.09, -1.14, 0.0, 0.0, -1.04, -1.09, -3.25, -2.23, -1.14, -1.09, 0.0, 0.0, 0.0, 0.0, 0.0, 0.0, 0.83, 1.55, 0.8, -0.69, -1.45, -2.97, -4.4, -4.31, -4.31, -5.76, -7.15, -8.37, -8.6, -8.94, -8.94, -8.94, -7.51, -7.51, -7.51, -7.23, -7.23, -7.23, -6.95, -6.95, -6.95, -7.27, -6.97, -6.97, -6.97, -6.97, -6.97, -6.98, -6.98, -6.98, -6.98, -6.98, -6.98, -6.98, -6.7, -6.7, -6.7, -6.61, -6.33, -6.33, -6.33, -6.33, -6.33, -6.33, -5.67, -5.67, -5.67, -5.67, -5.67, -5.67, -5.67, -5.67, -5.67, -5.89, -5.89, -5.67, -5.67, -5.89, -5.64, -5.64, -5.64, -5.64, -5.2, -5.2, -5.2, -5.23, -5.02, -4.8, -4.6, -4.63, -3.97, -4.0, -3.52, -3.56, -3.4, -3.14, -3.0, -2.6, -3.17, -2.09, -2.21, -1.14, -1.2, -1.16, -3.45, -5.45, -3.25, -2.13, -1.04, 0.0, 0.0, 0.0, 0.0, 0.0, 0.0, 0.0, -0.7, -1.4, -2.19, -2.97, -4.83, -5.04, -5.18, -5.86, -7.51, -8.37, -8.67, -8.87, -8.87, -8.87, -7.51, -7.51, -7.51, -7.51, -7.23, -7.23, -7.23, -6.95, -6.95, -6.95, -6.97, -6.97, -6.97, -6.97, -6.97, -6.97, -6.69, -6.69, -6.98, -6.98, -6.98, -6.98, -6.98, -6.7, -6.7, -6.34, -6.61, -6.33, -6.33, -6.33, -6.33, -6.33, -6.33, -6.07, -5.67, -5.67, -5.67, -5.67, -5.67, -5.67, -5.67, -5.67, -5.67, -5.67, -5.67, -5.89, -5.89, -5.64, -5.64, -5.64, -5.64, -5.64, -5.2, -5.23, -5.02, -5.26, -5.04, -4.63, -4.42, -4.2, -4.0, -3.56, -3.37, -3.4, -3.2, -2.88, -4.21, -3.17, -3.17, -1.14, -1.2, -2.46, -2.28, -4.44, -5.45, -4.4, -2.97, -2.04, -0.98, -0.98, -0.93, 0.0, 0.0, -0.89, -1.4, -1.38, -2.18, -3.02, -4.6, -5.13, -5.04, -5.04, -6.64, -7.64, -8.63, -9.11, -9.11, -9.11, -7.51, -7.51, -7.51, -7.51, -7.51, -7.23, -7.23, -6.95, -6.95, -6.95, -6.95, -6.97, -6.97, -6.97, -6.97, -6.97, -6.97, -6.97, -6.69, -6.69, -6.69, -6.98, -6.98, -6.98, -6.7, -6.7, -6.34, -6.61, -6.33, -6.33, -6.33, -6.33, -6.33, -6.33, -6.33, -6.33, -5.92, -5.92, -5.92, -5.92, -5.67, -5.67, -5.67, -5.67, -5.67, -5.67, -5.89, -5.89, -5.89, -5.89, -5.67, -5.89, -5.23, -5.23, -5.02, -5.04, -5.29, -5.06, -4.66, -4.44, -4.0, -4.03, -3.37, -3.6, -3.68, -3.32, -2.88, -2.29, -2.33, -1.2, -2.17, -2.28, -1.16, 0.0, -1.2, -5.2, -4.2, -3.11, -3.11, -2.02, -2.02, -1.07, 0.0, 0.0, -0.71, -1.38, -2.81, -3.53, -4.2, -4.6, -5.38, -5.13, -4.96, -6.11, -7.21, -7.76, -7.76, -7.76, -7.51, -7.51, -7.51, -7.51, -7.51, -7.23, -7.23, -6.95, -6.95, -6.95, -6.95, -6.95, -6.67, -6.97, -6.97, -6.97, -6.97, -6.97, -6.97, -6.69, -6.69, -6.69, -6.98, -6.98, -6.98, -6.7, -6.7, -6.98, -6.61, -6.33, -6.33, -6.33, -6.33, -6.33, -6.33, -6.33, -6.33, -5.92, -5.92, -5.92, -5.92, -5.92, -5.92, -5.92, -5.92, -5.67, -5.67, -5.67, -5.67, -5.67, -5.67, -5.67, -5.23, -5.23, -5.26, -5.04, -5.29, -5.06, -4.66, -4.44, -4.69, -4.03, -4.03, -4.05, -3.64, -3.97, -3.64, -2.88, -3.35, -2.17, -2.28, -1.16, 0.0, 0.0, 1.22, 1.16, -2.17, -3.3, -3.25, -2.95, -3.25, -2.1, -1.1, 0.0, -0.79, -1.61, -3.19, -3.85, -4.4, -4.5, -4.83, -4.6, -4.34, -4.34, -4.74, -5.72, -5.72, -5.72, -7.51, -7.51, -7.51, -7.51, -7.51, -7.51, -7.23, -7.23, -6.95, -6.95, -6.95, -6.95, -6.95, -6.67, -6.97, -6.97, -6.97, -6.97, -6.97, -6.97, -6.69, -6.69, -6.98, -6.98, -6.98, -6.98, -6.7, -6.7, -6.98, -6.61, -6.33, -6.33, -6.33, -6.33, -6.33, -6.33, -6.33, -5.92, -5.92, -5.92, -5.92, -5.92, -5.92, -5.92, -5.92, -5.92, -5.92, -5.67, -5.67, -5.67, -5.67, -5.92, -5.02, -5.26, -5.26, -5.04, -5.29, -5.06, -5.32, -4.66, -4.69, -4.69, -4.03, -4.28, -4.32, -3.91, -4.02, -3.38, -3.32, -3.14, -2.28, -1.16, 0.0, 0.0, 1.09, 1.09, 0.0, -1.04, -2.13, -3.25, -3.25, -3.08, -3.18, -2.47, -1.77, -2.44, -3.69, -4.4, -5.28, -5.28, -4.83, -4.6, -4.6, -4.34, -4.74, -4.98, -4.98, -4.98, -7.51, -7.51, -7.51, -7.51, -7.51, -7.51, -7.51, -7.23, -6.95, -6.95, -6.95, -6.95, -6.95, -6.95, -6.67, -6.97, -6.97, -6.97, -6.97, -6.97, -6.97, -6.69, -6.98, -6.98, -6.98, -6.98, -6.98, -6.7, -6.7, -6.98, -6.98, -6.61, -6.33, -6.33, -6.33, -6.33, -6.33, -5.69, -5.69, -5.69, -5.69, -5.69, -5.69, -5.69, -5.69, -5.69, -5.69, -5.69, -5.67, -5.67, -5.69, -5.26, -5.26, -5.26, -5.04, -5.04, -5.29, -5.06, -5.32, -5.08, -4.92, -4.69, -4.96, -4.28, -4.28, -4.32, -3.97, -4.02, -4.36, -4.44, -3.3, -3.3, -2.28, 0.0, 0.0, 0.0, -1.22, -1.16, -2.13, -3.25, -3.25, -3.39, -2.82, -3.42, -3.42, -3.19, -4.4, -6.14, -6.53, -6.53, -5.38, -5.13, -5.13, -4.71, -4.74, -4.74, -4.74, -4.74, -7.8, -7.8, -7.51, -7.51, -7.51, -7.51, -7.51, -7.51, -7.23, -6.95, -6.95, -6.95, -6.95, -6.95, -6.95, -6.97, -6.97, -6.97, -6.97, -6.97, -6.97, -6.97, -6.98, -6.98, -6.98, -6.98, -6.98, -6.98, -6.7, -6.7, -6.98, -6.98, -6.61, -6.33, -6.33, -6.33, -6.08, -5.69, -5.69, -5.69, -5.69, -5.69, -5.69, -5.69, -5.69, -5.69, -5.69, -5.69, -5.26, -5.26, -5.26, -5.26, -5.26, -5.04, -5.04, -5.29, -5.29, -5.32, -5.32, -5.34, -5.34, -4.69, -4.96, -4.96, -4.71, -4.32, -4.61, -4.71, -4.71, -6.11, -5.46, -4.66, -3.52, -2.46, -1.26, -1.33, -1.16, -2.28, -3.3, -3.45, -3.25, -3.08, -2.82, -3.81, -4.72, -3.57, -3.95, -5.49, -7.41, -7.41, -6.68, -5.94, -5.59, -5.59, -5.1, -5.1, -5.1, -5.1, -7.8, -7.8, -7.8, -7.8, -7.51, -7.51, -7.51, -7.51, -7.51, -7.23, -7.23, -6.95, -6.95, -6.95, -6.95, -7.27, -6.97, -6.97, -6.97, -6.97, -6.97, -6.97, -7.28, -6.98, -6.98, -6.98, -6.98, -6.98, -6.98, -6.7, -6.7, -6.7, -6.34, -6.34, -6.34, -6.34, -6.34, -5.95, -5.95, -5.95, -5.95, -5.95, -5.95, -5.95, -5.7, -5.04, -5.04, -5.26, -5.26, -5.26, -5.26, -5.26, -5.04, -5.04, -5.04, -5.29, -5.06, -5.32, -5.32, -5.6, -5.34, -5.34, -4.96, -4.96, -4.71, -5.0, -5.03, -5.35, -5.69, -5.35, -4.61, -4.4, -3.52, -2.46, -1.26, -1.16, 0.0, 0.0, -1.16, -2.39, -2.23, -3.08, -2.82, -3.68, -4.61, -4.1, -3.11, -4.2, -5.49, -6.73, -6.7, -6.68, -6.32, -5.59, -5.69, -6.01, -6.01, -6.01, -8.0, -8.0, -7.8, -7.8, -7.8, -7.51, -7.51, -7.51, -7.51, -7.51, -7.23, -7.23, -7.23, -7.23, -6.95, -7.27, -7.27, -6.97, -6.97, -6.97, -6.97, -6.97, -6.97, -7.28, -6.98, -6.98, -6.98, -6.98, -6.98, -6.98, -6.98, -6.7, -6.34, -6.34, -6.34, -6.34, -6.34, -5.95, -5.95, -5.7, -5.7, -5.7, -5.7, -5.7, -5.29, -5.29, -5.29, -5.04, -5.04, -5.04, -5.26, -5.04, -5.04, -5.04, -5.04, -5.29, -5.06, -5.32, -5.32, -5.6, -5.34, -5.34, -5.63, -4.96, -4.96, -5.0, -5.31, -5.03, -5.35, -5.35, -5.31, -5.21, -3.14, -1.62, 0.0, 0.0, 0.0, 0.0, 0.0, -1.04, -2.23, -3.08, -2.82, -3.55, -3.33, -3.34, -2.64, -2.44, -2.89, -3.51, -4.71, -6.01, -6.68, -6.68, -7.02, -7.06, -7.06, -7.06, -7.64, -7.64, -7.64, -7.44, -7.8, -7.8, -7.51, -7.51, -7.51, -7.51, -7.51, -7.23, -7.23, -7.23, -7.23, -7.23, -7.27, -6.97, -6.97, -6.97, -6.97, -6.97, -6.97, -6.97, -7.28, -6.98, -6.98, -6.98, -6.98, -6.98, -6.98, -6.98, -6.7, -6.34, -6.34, -6.34, -6.34, -6.34, -5.7, -5.7, -5.7, -5.7, -5.7, -5.29, -5.29, -5.29, -5.29, -5.29, -5.04, -5.04, -5.04, -5.04, -5.04, -5.04, -5.29, -5.06, -5.06, -5.32, -5.32, -5.6, -5.6, -5.34, -5.63, -5.36, -4.96, -5.0, -5.31, -5.31, -5.35, -5.35, -5.35, -4.61, -3.4, -1.62, 0.0, 0.0, 0.0, 0.0, 0.0, -1.16, -2.28, -2.95, -3.08, -3.53, -3.8, -3.19, -2.04, -1.61, -2.34, -2.31, -2.39, -3.82, -6.04, -8.12, -8.12, -7.87, -7.87, -7.87, -7.64, -7.64, -7.64, -7.44, -7.8, -7.8, -7.51, -7.51, -7.51, -7.51, -7.51, -7.23, -7.23, -7.23, -7.23, -7.23, -7.27, -6.97, -6.97, -6.97, -6.97, -6.97, -6.97, -6.97, -7.28, -6.98, -6.98, -6.98, -6.98, -6.98, -6.98, -6.98, -6.7, -6.34, -6.34, -6.34, -6.34, -6.34, -5.7, -5.7, -5.7, -5.7, -5.7, -5.29, -5.29, -5.29, -5.29, -5.29, -5.04, -5.04, -5.04, -5.04, -5.04, -5.04, -5.29, -5.06, -5.06, -5.32, -5.32, -5.6, -5.6, -5.34, -5.63, -5.36, -4.96, -5.0, -5.31, -5.31, -5.35, -5.35, -5.35, -4.61, -3.4, -1.62, 0.0, 0.0, 0.0, 0.0, 0.0, -1.16, -2.28, -3.11, -3.08, -3.53, -3.44, -2.88, -2.04, -1.94, -1.65, -1.64, -1.58, -1.7, -4.15, -7.59, -9.1, -8.72, -8.72, -8.72]}]